GEFSSGP_prec_meanprecacc_210.txt.gz
Total_Precipitation_Accumulation
0.03 0.11 0.25 0.34 0.61 1.20 1.21 0.87 0.48 0.31 0.30 0.37 0.41 0.40 0.50 0.58 0.68 1.15 0.82 0.62 0.39 0.39 0.57 0.65 0.62 0.52 0.50 0.54 0.57 0.55 0.50 0.48 0.54 0.53 0.54 0.57 0.56 0.53 0.56 0.66 0.73 0.82 0.86 0.87 0.94 0.89 0.81 0.63 0.53
0.04 0.12 0.25 0.34 0.86 1.46 1.18 0.81 0.44 0.32 0.25 0.38 0.48 0.41 0.56 0.52 0.29 0.38 0.57 0.53 0.33 0.29 0.38 0.42 0.47 0.43 0.38 0.36 0.40 0.49 0.50 0.50 0.56 0.62 0.70 0.74 0.76 0.73 0.71 0.74 0.74 0.81 0.83 0.81 0.83 0.76 0.65 0.52 0.45
0.04 0.10 0.22 0.35 0.87 1.06 0.81 0.56 0.32 0.28 0.21 0.26 0.39 0.33 0.46 0.61 0.39 0.38 0.45 0.40 0.29 0.25 0.31 0.36 0.33 0.29 0.29 0.29 0.31 0.42 0.51 0.54 0.55 0.62 0.71 0.80 0.94 0.91 0.88 0.86 0.91 0.92 0.83 0.72 0.65 0.62 0.51 0.43 0.43
0.03 0.08 0.17 0.31 0.57 0.59 0.44 0.38 0.29 0.27 0.24 0.23 0.33 0.43 0.59 0.49 0.39 0.43 0.42 0.42 0.28 0.23 0.25 0.25 0.28 0.28 0.29 0.28 0.30 0.37 0.47 0.51 0.53 0.57 0.69 0.76 0.93 1.01 0.98 0.94 0.97 0.88 0.70 0.59 0.51 0.47 0.42 0.41 0.44
0.02 0.07 0.18 0.26 0.33 0.41 0.37 0.33 0.27 0.28 0.25 0.30 0.40 0.68 0.95 0.69 0.45 0.45 0.47 0.44 0.36 0.28 0.25 0.23 0.26 0.26 0.27 0.28 0.32 0.36 0.39 0.45 0.44 0.44 0.52 0.64 0.76 0.91 0.89 0.86 0.84 0.70 0.59 0.52 0.44 0.40 0.41 0.45 0.47
0.01 0.04 0.14 0.17 0.23 0.29 0.30 0.25 0.25 0.23 0.26 0.39 0.56 0.81 0.94 0.80 0.68 0.70 0.73 0.63 0.61 0.45 0.33 0.30 0.32 0.28 0.27 0.28 0.32 0.33 0.34 0.37 0.40 0.37 0.43 0.55 0.66 0.73 0.75 0.73 0.72 0.61 0.52 0.44 0.40 0.40 0.42 0.45 0.47
0.01 0.03 0.06 0.10 0.15 0.19 0.23 0.20 0.21 0.22 0.31 0.49 0.66 0.97 1.01 1.07 0.99 0.91 1.06 1.15 0.95 0.69 0.51 0.43 0.37 0.31 0.31 0.34 0.34 0.32 0.32 0.39 0.41 0.39 0.45 0.57 0.62 0.68 0.70 0.71 0.70 0.66 0.54 0.43 0.38 0.38 0.38 0.41 0.43
0.01 0.03 0.06 0.06 0.09 0.15 0.14 0.16 0.17 0.22 0.36 0.45 0.61 0.99 1.21 1.06 1.11 1.14 1.33 1.46 1.37 0.97 0.74 0.58 0.55 0.52 0.44 0.37 0.39 0.40 0.39 0.43 0.47 0.49 0.54 0.63 0.65 0.68 0.74 0.71 0.71 0.69 0.64 0.56 0.53 0.45 0.39 0.41 0.43
0.01 0.03 0.05 0.05 0.06 0.11 0.09 0.14 0.19 0.17 0.23 0.39 0.57 0.85 0.92 0.85 0.98 1.11 1.33 1.50 1.68 1.44 1.03 0.81 0.73 0.69 0.66 0.55 0.50 0.56 0.57 0.60 0.62 0.71 0.75 0.84 0.84 0.80 0.97 0.92 0.96 0.86 0.85 0.81 0.77 0.68 0.60 0.55 0.53
0.01 0.02 0.03 0.03 0.04 0.05 0.07 0.12 0.17 0.15 0.34 0.61 0.73 0.82 0.73 0.85 0.95 1.15 1.29 1.37 1.53 1.62 1.20 1.05 0.85 0.74 0.76 0.85 1.01 1.00 0.85 0.90 1.00 1.15 1.22 1.46 1.46 1.36 1.13 1.21 1.33 1.38 1.47 1.38 1.33 1.27 1.00 0.84 0.79
0.00 0.01 0.02 0.02 0.02 0.03 0.07 0.07 0.13 0.17 0.49 0.96 1.11 1.11 1.00 0.96 1.09 1.33 1.55 1.58 1.47 1.54 1.30 1.20 1.15 1.09 0.98 1.11 1.26 1.29 1.23 1.29 1.33 1.40 1.50 1.65 1.44 1.33 1.27 1.32 1.54 1.66 1.77 1.72 1.89 1.92 1.60 1.54 1.55
0.00 0.01 0.01 0.01 0.01 0.03 0.06 0.07 0.12 0.21 0.50 0.79 1.07 1.04 1.16 1.12 1.20 1.44 1.74 1.90 1.89 1.99 1.70 1.53 1.56 1.43 1.31 1.29 1.40 1.43 1.43 1.37 1.42 1.57 1.52 1.65 1.73 1.68 1.65 1.76 1.77 1.86 2.03 2.37 2.19 2.36 2.25 2.08 1.96
0.00 0.00 0.01 0.01 0.01 0.03 0.05 0.12 0.15 0.24 0.37 0.57 0.82 0.82 0.87 1.17 1.53 1.90 2.24 2.23 2.37 2.53 2.44 2.14 1.89 1.69 1.63 1.75 1.73 1.63 1.65 1.61 1.70 1.86 1.81 1.83 2.00 2.04 2.07 2.04 2.06 1.90 2.08 2.44 2.55 2.42 2.63 2.70 2.51
0.00 0.00 0.01 0.02 0.02 0.04 0.06 0.17 0.26 0.35 0.44 0.50 0.77 1.00 1.04 1.38 1.71 2.25 2.88 2.77 2.55 2.72 2.81 2.60 2.37 2.19 2.15 2.27 2.31 2.17 1.96 2.05 2.12 2.10 1.97 2.02 2.24 2.46 2.52 2.38 2.33 2.18 2.19 2.41 2.54 2.55 3.06 2.99 2.85
0.00 0.01 0.02 0.05 0.06 0.09 0.13 0.32 0.48 0.50 0.48 0.56 0.86 1.17 1.40 1.56 1.88 2.21 2.57 2.88 3.01 3.10 3.02 2.95 2.87 2.76 2.78 2.72 2.66 2.46 2.36 2.21 2.23 2.29 2.33 2.30 2.30 2.55 2.63 2.62 2.50 2.41 2.35 2.51 2.56 2.77 3.04 2.79 2.67
0.01 0.02 0.05 0.09 0.10 0.12 0.19 0.55 0.57 0.48 0.50 0.82 1.02 1.35 1.62 1.71 1.98 2.37 2.70 3.20 3.43 3.46 3.43 3.39 3.23 3.23 3.22 3.14 3.02 2.85 2.69 2.42 2.23 2.24 2.38 2.40 2.42 2.55 2.66 2.50 2.39 2.60 2.68 2.76 2.93 3.03 3.06 2.93 2.83
0.03 0.04 0.08 0.11 0.12 0.11 0.19 0.42 0.55 0.51 0.71 0.99 1.23 1.54 1.82 2.07 2.53 2.99 3.22 3.34 3.67 3.95 4.07 4.04 3.98 3.77 3.52 3.42 3.39 3.42 3.31 2.97 2.62 2.52 2.52 2.51 2.36 2.39 2.57 2.46 2.53 2.71 2.81 2.86 2.64 3.05 3.03 3.03 2.93
0.04 0.05 0.11 0.15 0.14 0.14 0.23 0.38 0.50 0.58 0.81 1.20 1.56 1.82 2.06 2.44 2.95 3.29 3.55 3.89 4.03 4.25 4.64 4.51 4.37 4.30 4.20 4.09 3.82 3.80 3.55 3.23 3.04 2.91 2.91 2.71 2.55 2.52 2.71 2.55 2.62 2.74 2.89 2.91 2.91 3.10 3.07 2.90 2.86
0.05 0.08 0.13 0.17 0.15 0.18 0.33 0.52 0.56 0.74 1.04 1.33 1.63 1.87 2.19 2.49 2.91 3.36 3.44 3.66 3.95 4.53 4.88 4.93 5.04 4.90 4.61 4.19 3.75 3.56 3.46 3.40 3.21 2.98 2.79 2.66 2.60 2.70 2.93 2.77 2.91 2.89 2.76 2.77 2.92 3.10 2.91 2.68 2.79
0.06 0.10 0.14 0.17 0.15 0.16 0.31 0.52 0.63 0.98 1.30 1.32 1.43 1.56 1.77 2.20 2.60 2.94 3.11 3.19 3.57 4.15 4.55 4.65 4.42 4.28 4.11 3.84 3.70 3.66 3.85 3.54 3.22 3.02 2.78 2.59 2.57 2.66 2.60 2.72 2.61 2.65 2.77 2.75 2.80 3.00 2.82 2.42 2.56
0.05 0.07 0.11 0.16 0.16 0.23 0.34 0.64 0.84 1.09 1.23 1.24 1.31 1.41 1.57 1.91 2.24 2.56 2.67 2.83 3.04 3.11 3.36 3.51 3.66 3.55 3.43 3.39 3.37 3.39 3.57 3.31 3.03 2.83 2.70 2.44 2.32 2.30 2.34 2.37 2.45 2.70 2.70 2.69 2.78 2.78 2.64 2.30 2.29
0.06 0.07 0.06 0.08 0.16 0.29 0.43 0.95 1.18 1.11 1.17 1.31 1.33 1.34 1.59 1.89 1.88 1.99 2.19 2.37 2.61 2.72 2.90 2.96 2.99 3.08 3.08 3.13 3.03 2.86 2.74 2.60 2.47 2.47 2.43 2.39 2.29 2.21 2.18 2.18 2.24 2.31 2.29 2.37 2.20 2.29 2.42 2.45 2.26
0.05 0.05 0.06 0.10 0.19 0.30 0.43 0.75 1.12 1.44 1.51 1.32 1.29 1.21 1.39 1.54 1.45 1.43 1.60 1.74 1.95 2.11 2.34 2.50 2.61 2.69 2.78 2.82 2.72 2.67 2.46 2.43 2.44 2.39 2.39 2.29 2.20 2.16 2.12 2.07 2.06 1.98 1.95 2.06 2.04 2.15 2.20 2.19 2.16
0.04 0.06 0.12 0.24 0.42 0.65 0.56 0.69 1.07 1.42 1.67 1.41 1.23 1.16 1.24 1.20 1.18 1.31 1.42 1.51 1.63 1.84 2.00 2.15 2.30 2.35 2.47 2.51 2.51 2.46 2.38 2.39 2.35 2.29 2.24 2.17 2.15 2.04 1.98 1.95 1.96 1.88 1.87 1.92 1.96 2.02 1.99 2.03 2.09
0.06 0.13 0.45 0.81 1.10 1.13 0.72 0.78 1.13 1.13 1.16 1.16 1.13 1.17 1.16 1.08 1.02 1.04 1.15 1.28 1.43 1.61 1.72 1.79 1.93 2.01 2.03 2.06 2.11 2.09 2.15 2.25 2.10 1.99 1.99 1.95 1.80 1.66 1.66 1.64 1.71 1.70 1.75 1.78 1.84 1.86 1.87 1.97 2.05
0.10 0.15 0.50 0.77 0.82 0.92 0.81 1.08 1.42 1.13 1.04 0.97 1.04 1.13 1.09 0.95 0.88 0.92 1.03 1.07 1.13 1.27 1.47 1.53 1.66 1.76 1.89 1.92 1.89 1.88 1.87 1.88 1.76 1.79 1.74 1.70 1.52 1.41 1.53 1.64 1.67 1.69 1.71 1.71 1.83 1.73 1.72 1.86 1.92
0.15 0.17 0.23 0.44 0.49 0.70 0.90 1.19 1.36 1.04 0.99 1.08 1.19 1.19 1.13 0.89 0.75 0.75 0.78 0.84 0.85 0.93 1.06 1.21 1.48 1.62 1.70 1.76 1.75 1.66 1.59 1.60 1.58 1.61 1.70 1.64 1.60 1.45 1.53 1.59 1.67 1.70 1.78 1.84 1.87 1.75 1.85 2.02 1.94
0.15 0.16 0.19 0.36 0.54 0.74 0.87 1.24 1.53 1.39 1.27 1.25 1.31 1.15 0.88 0.71 0.59 0.57 0.59 0.61 0.67 0.73 0.82 0.97 1.19 1.29 1.39 1.53 1.56 1.40 1.49 1.57 1.56 1.53 1.45 1.45 1.47 1.47 1.42 1.43 1.48 1.48 1.54 1.66 1.73 1.68 1.81 2.00 1.96
0.19 0.21 0.28 0.40 0.44 0.65 1.00 1.21 1.14 1.15 1.13 1.19 1.16 0.98 0.73 0.60 0.52 0.53 0.55 0.58 0.63 0.68 0.78 0.94 1.15 1.30 1.30 1.36 1.43 1.40 1.45 1.55 1.56 1.49 1.40 1.39 1.39 1.43 1.37 1.33 1.33 1.33 1.29 1.35 1.47 1.50 1.69 1.71 1.70
0.17 0.19 0.28 0.42 0.42 0.46 0.70 0.90 0.65 0.70 0.73 0.79 0.83 0.71 0.61 0.58 0.54 0.60 0.65 0.66 0.65 0.74 0.83 0.95 1.09 1.27 1.32 1.39 1.53 1.62 1.56 1.52 1.51 1.46 1.35 1.27 1.22 1.25 1.30 1.36 1.27 1.18 1.23 1.30 1.31 1.39 1.55 1.61 1.58

GEFSSGP_prec_meanprecacc_216.txt.gz
Total_Precipitation_Accumulation
0.03 0.11 0.25 0.35 0.61 1.20 1.22 0.88 0.48 0.32 0.32 0.39 0.42 0.41 0.51 0.61 0.73 1.25 0.99 0.77 0.48 0.48 0.68 0.75 0.72 0.60 0.56 0.59 0.62 0.59 0.55 0.53 0.60 0.61 0.62 0.64 0.63 0.59 0.62 0.72 0.82 0.91 0.97 0.97 1.03 0.99 0.90 0.70 0.58
0.04 0.12 0.25 0.34 0.86 1.46 1.18 0.83 0.45 0.32 0.26 0.39 0.49 0.43 0.58 0.55 0.35 0.50 0.72 0.64 0.40 0.36 0.48 0.51 0.55 0.51 0.43 0.40 0.44 0.54 0.55 0.57 0.63 0.71 0.79 0.82 0.85 0.81 0.79 0.81 0.84 0.93 0.95 0.93 0.94 0.86 0.72 0.57 0.50
0.04 0.10 0.22 0.35 0.87 1.06 0.82 0.58 0.33 0.28 0.21 0.26 0.40 0.34 0.47 0.64 0.44 0.49 0.60 0.52 0.37 0.34 0.41 0.46 0.42 0.36 0.36 0.33 0.35 0.46 0.57 0.62 0.63 0.71 0.82 0.91 1.06 1.02 0.99 0.97 1.04 1.04 0.95 0.83 0.76 0.73 0.58 0.47 0.48
0.03 0.08 0.17 0.31 0.57 0.60 0.44 0.38 0.29 0.28 0.24 0.23 0.33 0.43 0.60 0.52 0.44 0.52 0.53 0.51 0.35 0.31 0.31 0.32 0.36 0.37 0.37 0.35 0.37 0.43 0.52 0.58 0.62 0.66 0.78 0.86 1.05 1.17 1.14 1.08 1.12 1.03 0.83 0.72 0.65 0.59 0.50 0.47 0.49
0.02 0.07 0.18 0.26 0.33 0.41 0.38 0.33 0.27 0.28 0.26 0.30 0.40 0.68 0.96 0.72 0.49 0.50 0.53 0.49 0.41 0.32 0.30 0.28 0.32 0.34 0.36 0.37 0.39 0.43 0.45 0.53 0.53 0.52 0.61 0.74 0.90 1.09 1.07 1.05 1.02 0.85 0.73 0.67 0.60 0.53 0.50 0.53 0.54
0.01 0.04 0.14 0.17 0.23 0.29 0.30 0.25 0.26 0.23 0.26 0.39 0.56 0.81 0.96 0.83 0.71 0.73 0.76 0.65 0.63 0.47 0.36 0.35 0.37 0.34 0.34 0.35 0.39 0.40 0.41 0.45 0.50 0.47 0.52 0.65 0.78 0.89 0.92 0.88 0.83 0.72 0.66 0.63 0.58 0.51 0.50 0.51 0.51
0.01 0.03 0.06 0.10 0.15 0.19 0.23 0.20 0.22 0.22 0.32 0.49 0.66 0.97 1.03 1.09 1.01 0.92 1.08 1.16 0.97 0.71 0.52 0.46 0.40 0.33 0.34 0.38 0.38 0.39 0.41 0.49 0.53 0.50 0.55 0.70 0.72 0.79 0.81 0.84 0.81 0.79 0.74 0.70 0.57 0.50 0.46 0.46 0.46
0.01 0.03 0.06 0.06 0.09 0.15 0.14 0.16 0.17 0.22 0.36 0.45 0.61 0.99 1.21 1.07 1.12 1.15 1.34 1.47 1.38 0.99 0.76 0.59 0.56 0.54 0.46 0.39 0.43 0.45 0.45 0.51 0.58 0.59 0.67 0.81 0.79 0.81 0.88 0.85 0.85 0.85 0.87 0.80 0.68 0.56 0.47 0.46 0.47
0.01 0.03 0.05 0.05 0.06 0.11 0.09 0.14 0.19 0.17 0.23 0.40 0.57 0.85 0.92 0.85 0.98 1.11 1.33 1.51 1.68 1.45 1.05 0.82 0.74 0.71 0.68 0.57 0.52 0.59 0.61 0.65 0.69 0.81 0.89 1.01 1.05 1.02 1.14 1.06 1.10 1.03 1.03 0.96 0.87 0.75 0.65 0.59 0.58
0.01 0.02 0.03 0.03 0.04 0.05 0.07 0.12 0.17 0.15 0.34 0.61 0.73 0.82 0.73 0.85 0.95 1.15 1.29 1.37 1.53 1.62 1.20 1.05 0.86 0.75 0.76 0.86 1.03 1.04 0.87 0.93 1.05 1.23 1.35 1.57 1.58 1.54 1.29 1.37 1.47 1.54 1.62 1.51 1.42 1.34 1.04 0.87 0.82
0.00 0.01 0.02 0.02 0.02 0.03 0.07 0.07 0.13 0.17 0.49 0.96 1.11 1.11 1.00 0.96 1.09 1.33 1.55 1.58 1.47 1.54 1.30 1.20 1.16 1.09 0.98 1.11 1.26 1.31 1.25 1.31 1.35 1.44 1.56 1.70 1.49 1.41 1.37 1.45 1.69 1.80 1.89 1.81 1.95 1.96 1.63 1.57 1.58
0.00 0.01 0.01 0.01 0.01 0.03 0.06 0.07 0.12 0.21 0.50 0.79 1.07 1.04 1.16 1.12 1.20 1.44 1.74 1.90 1.89 1.99 1.71 1.53 1.57 1.43 1.31 1.29 1.41 1.44 1.44 1.39 1.43 1.59 1.54 1.69 1.78 1.74 1.73 1.84 1.86 1.94 2.11 2.45 2.23 2.39 2.27 2.10 1.97
0.00 0.00 0.01 0.01 0.01 0.03 0.05 0.12 0.15 0.24 0.37 0.57 0.82 0.82 0.87 1.17 1.53 1.90 2.24 2.23 2.37 2.53 2.44 2.15 1.89 1.69 1.64 1.76 1.74 1.64 1.66 1.63 1.72 1.88 1.84 1.87 2.05 2.09 2.11 2.09 2.12 1.94 2.13 2.48 2.59 2.47 2.67 2.75 2.55
0.00 0.00 0.01 0.02 0.02 0.04 0.06 0.17 0.26 0.35 0.44 0.50 0.77 1.00 1.04 1.38 1.71 2.25 2.88 2.77 2.55 2.73 2.81 2.60 2.37 2.20 2.15 2.28 2.33 2.18 1.97 2.07 2.14 2.15 2.03 2.07 2.29 2.51 2.58 2.42 2.38 2.22 2.23 2.45 2.59 2.61 3.13 3.07 2.93
0.00 0.01 0.02 0.05 0.06 0.09 0.14 0.32 0.48 0.50 0.48 0.56 0.86 1.17 1.40 1.56 1.88 2.21 2.57 2.88 3.01 3.11 3.02 2.96 2.88 2.77 2.79 2.73 2.67 2.48 2.38 2.23 2.25 2.33 2.39 2.35 2.37 2.63 2.72 2.69 2.55 2.45 2.40 2.58 2.64 2.85 3.12 2.87 2.75
0.01 0.02 0.05 0.09 0.10 0.12 0.19 0.55 0.57 0.48 0.50 0.82 1.02 1.35 1.62 1.71 1.98 2.37 2.70 3.20 3.44 3.47 3.44 3.41 3.24 3.24 3.24 3.15 3.03 2.86 2.70 2.44 2.26 2.27 2.42 2.45 2.48 2.63 2.75 2.58 2.45 2.65 2.72 2.83 3.01 3.11 3.13 3.00 2.91
0.03 0.04 0.08 0.11 0.12 0.12 0.19 0.42 0.55 0.51 0.71 1.00 1.24 1.55 1.83 2.08 2.53 2.99 3.22 3.35 3.68 3.98 4.10 4.08 4.01 3.79 3.53 3.44 3.41 3.43 3.33 3.01 2.67 2.58 2.57 2.56 2.40 2.46 2.66 2.55 2.63 2.78 2.88 2.93 2.69 3.09 3.09 3.09 3.01
0.04 0.05 0.11 0.15 0.14 0.14 0.23 0.38 0.50 0.58 0.81 1.21 1.57 1.84 2.08 2.47 2.97 3.30 3.56 3.90 4.04 4.28 4.70 4.61 4.43 4.33 4.24 4.12 3.85 3.82 3.57 3.26 3.08 2.97 2.99 2.78 2.61 2.59 2.78 2.62 2.71 2.82 2.97 3.00 2.98 3.17 3.14 2.97 2.94
0.05 0.08 0.13 0.17 0.15 0.18 0.33 0.52 0.56 0.74 1.04 1.34 1.66 1.91 2.22 2.51 2.93 3.37 3.46 3.67 3.96 4.54 4.91 4.99 5.08 4.93 4.64 4.22 3.79 3.60 3.50 3.45 3.24 3.03 2.85 2.73 2.67 2.76 3.00 2.82 2.98 2.96 2.83 2.85 2.99 3.17 2.99 2.76 2.85
0.06 0.10 0.14 0.17 0.15 0.17 0.31 0.52 0.63 0.98 1.30 1.32 1.45 1.59 1.78 2.22 2.61 2.94 3.12 3.20 3.58 4.15 4.56 4.66 4.43 4.30 4.13 3.86 3.74 3.71 3.90 3.59 3.26 3.06 2.84 2.64 2.62 2.72 2.64 2.78 2.67 2.72 2.86 2.83 2.87 3.07 2.89 2.50 2.63
0.05 0.07 0.11 0.16 0.16 0.23 0.34 0.64 0.84 1.09 1.23 1.24 1.31 1.42 1.58 1.91 2.25 2.56 2.67 2.83 3.04 3.11 3.36 3.52 3.67 3.57 3.45 3.41 3.39 3.43 3.62 3.36 3.08 2.90 2.77 2.50 2.37 2.34 2.39 2.43 2.51 2.76 2.78 2.78 2.86 2.85 2.70 2.39 2.36
0.06 0.07 0.06 0.08 0.16 0.29 0.43 0.95 1.18 1.11 1.17 1.31 1.33 1.34 1.59 1.89 1.88 1.99 2.19 2.37 2.61 2.72 2.91 2.97 2.99 3.09 3.10 3.16 3.07 2.90 2.79 2.66 2.53 2.55 2.51 2.46 2.37 2.28 2.25 2.26 2.31 2.38 2.37 2.46 2.26 2.35 2.50 2.55 2.35
0.05 0.05 0.06 0.10 0.19 0.30 0.43 0.75 1.12 1.44 1.51 1.32 1.29 1.21 1.39 1.54 1.45 1.43 1.60 1.74 1.95 2.12 2.36 2.51 2.62 2.70 2.80 2.85 2.75 2.71 2.50 2.47 2.47 2.45 2.46 2.37 2.29 2.25 2.19 2.16 2.14 2.05 2.01 2.13 2.11 2.23 2.27 2.27 2.24
0.04 0.06 0.12 0.24 0.42 0.66 0.56 0.69 1.07 1.42 1.67 1.41 1.23 1.16 1.24 1.20 1.18 1.31 1.42 1.51 1.64 1.85 2.02 2.17 2.31 2.36 2.48 2.53 2.54 2.48 2.42 2.42 2.39 2.35 2.30 2.23 2.22 2.12 2.04 2.00 2.01 1.92 1.91 1.97 2.04 2.11 2.06 2.10 2.17
0.06 0.13 0.45 0.82 1.10 1.13 0.72 0.78 1.13 1.13 1.16 1.16 1.13 1.18 1.17 1.08 1.02 1.04 1.15 1.29 1.45 1.63 1.73 1.80 1.94 2.02 2.04 2.08 2.12 2.10 2.18 2.29 2.15 2.05 2.05 2.02 1.87 1.72 1.73 1.70 1.77 1.76 1.81 1.84 1.90 1.95 1.96 2.05 2.13
0.10 0.15 0.50 0.77 0.82 0.92 0.81 1.08 1.42 1.13 1.04 0.97 1.04 1.13 1.10 0.96 0.88 0.92 1.03 1.08 1.16 1.32 1.49 1.54 1.66 1.76 1.90 1.93 1.91 1.90 1.91 1.93 1.81 1.85 1.81 1.77 1.57 1.46 1.58 1.72 1.76 1.77 1.78 1.78 1.91 1.80 1.81 1.96 2.01
0.15 0.17 0.23 0.44 0.49 0.70 0.90 1.19 1.36 1.04 0.99 1.08 1.19 1.19 1.13 0.89 0.75 0.75 0.78 0.84 0.86 0.94 1.07 1.21 1.49 1.62 1.70 1.77 1.77 1.68 1.63 1.66 1.65 1.68 1.77 1.70 1.65 1.51 1.59 1.68 1.76 1.79 1.87 1.92 1.94 1.82 1.93 2.11 2.02
0.15 0.16 0.19 0.36 0.54 0.74 0.87 1.24 1.53 1.39 1.27 1.25 1.31 1.16 0.88 0.71 0.59 0.57 0.59 0.61 0.67 0.74 0.83 0.98 1.19 1.30 1.40 1.54 1.59 1.43 1.55 1.66 1.66 1.63 1.55 1.53 1.54 1.53 1.47 1.49 1.55 1.56 1.62 1.74 1.81 1.76 1.88 2.09 2.03
0.19 0.21 0.28 0.40 0.44 0.65 1.00 1.21 1.14 1.15 1.13 1.19 1.17 0.98 0.73 0.60 0.52 0.53 0.55 0.59 0.64 0.68 0.79 0.95 1.18 1.33 1.32 1.39 1.45 1.44 1.51 1.63 1.63 1.55 1.46 1.45 1.45 1.48 1.41 1.38 1.38 1.38 1.35 1.41 1.55 1.57 1.76 1.78 1.75
0.17 0.19 0.28 0.42 0.42 0.46 0.70 0.91 0.65 0.70 0.73 0.79 0.83 0.72 0.61 0.58 0.54 0.60 0.65 0.66 0.66 0.75 0.84 0.97 1.12 1.30 1.35 1.42 1.55 1.65 1.60 1.56 1.56 1.53 1.42 1.35 1.28 1.29 1.34 1.40 1.31 1.22 1.28 1.37 1.39 1.46 1.61 1.67 1.66

GEFSSGP_prec_meanprecacc_222.txt.gz
Total_Precipitation_Accumulation
0.03 0.11 0.26 0.36 0.63 1.23 1.24 0.91 0.52 0.34 0.34 0.41 0.43 0.42 0.53 0.63 0.79 1.38 1.16 0.92 0.61 0.58 0.76 0.81 0.77 0.66 0.62 0.63 0.66 0.64 0.60 0.58 0.67 0.69 0.69 0.70 0.69 0.64 0.67 0.77 0.87 0.96 1.02 1.04 1.10 1.08 1.00 0.76 0.62
0.04 0.12 0.26 0.35 0.87 1.47 1.20 0.85 0.46 0.34 0.27 0.40 0.51 0.44 0.59 0.57 0.40 0.62 0.88 0.78 0.50 0.45 0.57 0.57 0.60 0.56 0.48 0.45 0.50 0.60 0.61 0.62 0.70 0.79 0.88 0.89 0.92 0.89 0.86 0.88 0.92 1.02 1.04 1.03 1.05 0.99 0.84 0.63 0.53
0.04 0.11 0.23 0.36 0.88 1.07 0.83 0.59 0.33 0.29 0.21 0.27 0.42 0.37 0.51 0.70 0.51 0.62 0.74 0.62 0.45 0.41 0.47 0.52 0.47 0.42 0.41 0.38 0.42 0.54 0.64 0.69 0.71 0.80 0.90 0.99 1.13 1.10 1.09 1.09 1.17 1.16 1.06 0.94 0.90 0.88 0.69 0.53 0.50
0.03 0.08 0.17 0.31 0.57 0.60 0.45 0.40 0.29 0.28 0.25 0.23 0.34 0.46 0.66 0.60 0.53 0.64 0.63 0.57 0.40 0.35 0.36 0.37 0.42 0.43 0.43 0.41 0.44 0.50 0.60 0.67 0.71 0.75 0.88 0.96 1.15 1.29 1.29 1.24 1.26 1.17 0.95 0.85 0.80 0.76 0.61 0.55 0.53
0.02 0.07 0.18 0.26 0.34 0.41 0.38 0.33 0.27 0.28 0.26 0.30 0.40 0.71 1.02 0.80 0.58 0.60 0.61 0.56 0.45 0.36 0.35 0.32 0.37 0.39 0.42 0.42 0.45 0.49 0.52 0.62 0.62 0.59 0.69 0.84 1.03 1.29 1.29 1.23 1.16 1.00 0.88 0.83 0.79 0.70 0.60 0.60 0.58
0.02 0.05 0.15 0.17 0.23 0.29 0.30 0.25 0.26 0.23 0.26 0.39 0.56 0.82 1.00 0.90 0.80 0.82 0.84 0.72 0.69 0.51 0.39 0.39 0.43 0.40 0.39 0.38 0.42 0.44 0.47 0.52 0.57 0.55 0.60 0.77 0.93 1.05 1.09 1.06 0.98 0.89 0.88 0.86 0.79 0.67 0.59 0.57 0.54
0.01 0.04 0.07 0.10 0.15 0.20 0.23 0.20 0.22 0.23 0.32 0.49 0.66 0.97 1.06 1.14 1.05 0.96 1.13 1.21 1.01 0.74 0.55 0.49 0.43 0.36 0.37 0.40 0.41 0.43 0.45 0.53 0.59 0.58 0.66 0.83 0.86 0.89 0.89 0.94 0.92 0.91 0.90 0.91 0.75 0.59 0.53 0.51 0.49
0.01 0.04 0.06 0.06 0.09 0.16 0.15 0.16 0.17 0.22 0.36 0.46 0.61 1.00 1.23 1.10 1.13 1.17 1.36 1.49 1.41 1.02 0.80 0.63 0.58 0.56 0.48 0.41 0.46 0.49 0.49 0.56 0.63 0.66 0.75 0.90 0.88 0.89 0.95 0.92 0.93 0.94 0.98 0.95 0.79 0.61 0.51 0.50 0.50
0.01 0.03 0.05 0.05 0.06 0.11 0.09 0.14 0.19 0.17 0.23 0.40 0.57 0.85 0.92 0.86 0.98 1.12 1.35 1.52 1.69 1.46 1.08 0.86 0.76 0.73 0.70 0.57 0.54 0.63 0.65 0.71 0.77 0.88 0.95 1.11 1.18 1.12 1.24 1.13 1.18 1.12 1.13 1.05 0.94 0.81 0.69 0.62 0.60
0.01 0.02 0.03 0.03 0.04 0.05 0.07 0.12 0.18 0.16 0.35 0.61 0.73 0.82 0.73 0.85 0.95 1.15 1.30 1.37 1.54 1.63 1.21 1.07 0.89 0.78 0.78 0.87 1.08 1.12 0.92 0.99 1.16 1.35 1.46 1.70 1.70 1.65 1.39 1.46 1.57 1.64 1.71 1.57 1.47 1.39 1.09 0.92 0.86
0.01 0.01 0.02 0.02 0.02 0.03 0.07 0.08 0.13 0.18 0.50 0.96 1.11 1.11 1.00 0.96 1.09 1.33 1.55 1.58 1.47 1.54 1.31 1.21 1.17 1.13 1.00 1.14 1.30 1.37 1.31 1.38 1.43 1.53 1.66 1.80 1.57 1.50 1.53 1.63 1.85 1.95 1.99 1.88 2.00 2.01 1.68 1.61 1.62
0.00 0.01 0.01 0.01 0.01 0.03 0.06 0.07 0.12 0.21 0.50 0.79 1.07 1.04 1.16 1.12 1.20 1.44 1.74 1.90 1.89 1.99 1.71 1.54 1.57 1.45 1.33 1.32 1.44 1.47 1.48 1.43 1.47 1.65 1.62 1.76 1.87 1.86 1.90 2.04 2.03 2.08 2.20 2.53 2.28 2.43 2.31 2.12 2.00
0.00 0.00 0.01 0.01 0.01 0.03 0.05 0.12 0.15 0.24 0.37 0.57 0.82 0.82 0.87 1.17 1.53 1.90 2.24 2.23 2.37 2.53 2.44 2.15 1.90 1.70 1.66 1.78 1.77 1.66 1.69 1.65 1.75 1.92 1.89 1.93 2.14 2.21 2.25 2.22 2.24 2.03 2.19 2.54 2.64 2.50 2.70 2.77 2.57
0.00 0.00 0.01 0.02 0.02 0.04 0.07 0.18 0.26 0.35 0.44 0.50 0.77 1.00 1.04 1.38 1.71 2.25 2.88 2.77 2.55 2.73 2.81 2.61 2.38 2.21 2.18 2.30 2.36 2.21 2.00 2.11 2.18 2.18 2.06 2.11 2.34 2.59 2.68 2.52 2.48 2.30 2.29 2.52 2.65 2.65 3.18 3.12 2.96
0.00 0.01 0.02 0.05 0.06 0.09 0.15 0.33 0.48 0.50 0.48 0.56 0.86 1.17 1.40 1.56 1.88 2.21 2.57 2.88 3.02 3.11 3.03 2.97 2.90 2.79 2.81 2.76 2.70 2.50 2.40 2.25 2.28 2.38 2.42 2.38 2.40 2.66 2.77 2.76 2.63 2.52 2.45 2.64 2.70 2.89 3.16 2.91 2.78
0.01 0.02 0.06 0.09 0.10 0.12 0.20 0.56 0.58 0.48 0.50 0.82 1.02 1.35 1.62 1.71 1.98 2.37 2.70 3.20 3.44 3.47 3.45 3.41 3.24 3.25 3.25 3.18 3.06 2.89 2.73 2.47 2.29 2.32 2.47 2.48 2.51 2.66 2.81 2.63 2.50 2.70 2.77 2.89 3.09 3.17 3.19 3.06 2.96
0.03 0.04 0.08 0.11 0.12 0.12 0.19 0.43 0.56 0.51 0.71 1.00 1.24 1.55 1.83 2.09 2.53 2.99 3.22 3.35 3.68 3.98 4.10 4.08 4.01 3.80 3.55 3.45 3.44 3.46 3.37 3.04 2.70 2.62 2.62 2.61 2.46 2.51 2.72 2.61 2.68 2.82 2.92 2.98 2.74 3.17 3.18 3.18 3.07
0.04 0.06 0.12 0.15 0.14 0.15 0.24 0.39 0.50 0.58 0.81 1.21 1.58 1.85 2.10 2.48 2.97 3.30 3.56 3.90 4.04 4.28 4.70 4.62 4.44 4.35 4.26 4.15 3.88 3.86 3.61 3.29 3.12 3.02 3.05 2.83 2.66 2.64 2.85 2.72 2.78 2.89 3.04 3.07 3.05 3.26 3.22 3.04 3.01
0.05 0.08 0.13 0.17 0.15 0.18 0.34 0.53 0.57 0.75 1.04 1.34 1.67 1.92 2.24 2.53 2.94 3.37 3.46 3.67 3.97 4.55 4.92 5.01 5.10 4.96 4.68 4.27 3.84 3.65 3.56 3.50 3.29 3.09 2.90 2.77 2.70 2.81 3.07 2.91 3.08 3.05 2.91 2.92 3.06 3.26 3.08 2.85 2.92
0.06 0.10 0.14 0.17 0.15 0.17 0.31 0.52 0.64 0.99 1.30 1.33 1.50 1.64 1.81 2.24 2.62 2.94 3.12 3.20 3.59 4.17 4.57 4.68 4.46 4.33 4.15 3.89 3.78 3.76 3.95 3.64 3.31 3.11 2.91 2.67 2.65 2.76 2.71 2.89 2.77 2.82 2.97 2.94 2.96 3.17 2.99 2.60 2.71
0.05 0.07 0.11 0.17 0.16 0.23 0.34 0.65 0.87 1.12 1.26 1.27 1.35 1.49 1.60 1.92 2.25 2.56 2.67 2.84 3.05 3.13 3.38 3.54 3.69 3.60 3.48 3.45 3.44 3.48 3.69 3.43 3.17 2.98 2.86 2.55 2.40 2.38 2.46 2.52 2.61 2.89 2.89 2.91 2.99 2.96 2.82 2.52 2.47
0.06 0.07 0.06 0.08 0.16 0.29 0.43 0.96 1.21 1.17 1.23 1.35 1.34 1.35 1.60 1.89 1.88 1.99 2.19 2.38 2.63 2.74 2.93 2.99 3.02 3.12 3.14 3.22 3.13 2.97 2.86 2.75 2.63 2.63 2.59 2.54 2.42 2.33 2.31 2.34 2.41 2.49 2.48 2.58 2.35 2.45 2.62 2.69 2.47
0.05 0.05 0.06 0.10 0.19 0.31 0.43 0.75 1.14 1.48 1.55 1.36 1.31 1.21 1.40 1.54 1.45 1.43 1.60 1.74 1.97 2.15 2.37 2.52 2.63 2.72 2.84 2.89 2.81 2.78 2.57 2.54 2.55 2.52 2.55 2.47 2.40 2.35 2.26 2.25 2.26 2.17 2.12 2.23 2.21 2.37 2.39 2.38 2.35
0.04 0.06 0.12 0.24 0.43 0.66 0.56 0.69 1.08 1.45 1.71 1.44 1.24 1.16 1.25 1.21 1.18 1.31 1.42 1.51 1.64 1.86 2.02 2.17 2.32 2.38 2.50 2.56 2.58 2.54 2.49 2.49 2.47 2.43 2.39 2.32 2.31 2.22 2.14 2.11 2.13 2.03 2.02 2.09 2.16 2.24 2.18 2.20 2.28
0.06 0.13 0.45 0.82 1.11 1.13 0.72 0.78 1.13 1.14 1.17 1.18 1.14 1.18 1.17 1.08 1.02 1.04 1.15 1.29 1.45 1.63 1.74 1.80 1.94 2.04 2.06 2.11 2.16 2.16 2.24 2.35 2.21 2.11 2.12 2.09 1.94 1.85 1.87 1.80 1.88 1.88 1.92 1.95 2.03 2.08 2.07 2.17 2.26
0.10 0.15 0.50 0.77 0.83 0.93 0.81 1.09 1.42 1.13 1.04 0.97 1.04 1.13 1.10 0.96 0.88 0.92 1.03 1.09 1.16 1.32 1.49 1.55 1.67 1.78 1.91 1.96 1.94 1.95 1.96 1.98 1.88 1.91 1.88 1.84 1.64 1.55 1.68 1.81 1.86 1.85 1.86 1.87 2.04 1.92 1.91 2.07 2.12
0.15 0.17 0.23 0.44 0.49 0.70 0.91 1.19 1.37 1.04 0.99 1.08 1.19 1.19 1.13 0.90 0.75 0.76 0.79 0.85 0.86 0.94 1.07 1.22 1.49 1.63 1.71 1.78 1.79 1.72 1.67 1.71 1.71 1.75 1.84 1.78 1.72 1.57 1.65 1.73 1.83 1.86 1.95 2.01 2.06 1.92 2.03 2.24 2.14
0.15 0.16 0.19 0.36 0.54 0.74 0.88 1.25 1.54 1.42 1.28 1.25 1.31 1.16 0.88 0.71 0.59 0.57 0.59 0.61 0.67 0.74 0.83 0.98 1.20 1.31 1.42 1.56 1.61 1.46 1.59 1.70 1.73 1.71 1.62 1.61 1.62 1.59 1.53 1.55 1.61 1.62 1.68 1.82 1.93 1.87 1.99 2.21 2.16
0.19 0.21 0.28 0.40 0.44 0.65 1.01 1.22 1.18 1.21 1.14 1.19 1.17 0.98 0.73 0.60 0.52 0.53 0.55 0.59 0.64 0.69 0.79 0.96 1.19 1.35 1.34 1.42 1.48 1.48 1.55 1.67 1.69 1.62 1.54 1.52 1.53 1.57 1.51 1.48 1.46 1.44 1.41 1.50 1.66 1.67 1.86 1.89 1.86
0.17 0.19 0.28 0.42 0.42 0.46 0.70 0.91 0.66 0.72 0.73 0.79 0.83 0.72 0.61 0.58 0.54 0.61 0.65 0.66 0.66 0.75 0.85 0.98 1.14 1.32 1.38 1.45 1.58 1.69 1.65 1.61 1.62 1.60 1.50 1.42 1.38 1.43 1.47 1.50 1.39 1.28 1.34 1.44 1.46 1.53 1.73 1.79 1.77

GEFSSGP_prec_meanprecacc_228.txt.gz
Total_Precipitation_Accumulation
0.06 0.16 0.31 0.39 0.65 1.25 1.26 0.94 0.54 0.36 0.35 0.42 0.44 0.43 0.55 0.66 0.84 1.50 1.34 1.07 0.69 0.64 0.81 0.84 0.80 0.70 0.65 0.67 0.70 0.68 0.64 0.62 0.70 0.72 0.73 0.74 0.72 0.67 0.70 0.81 0.93 1.04 1.11 1.13 1.19 1.15 1.05 0.81 0.67
0.07 0.16 0.28 0.37 0.89 1.47 1.22 0.87 0.48 0.36 0.29 0.41 0.52 0.45 0.60 0.60 0.49 0.77 1.03 0.90 0.56 0.48 0.59 0.59 0.63 0.59 0.52 0.49 0.54 0.63 0.64 0.66 0.73 0.82 0.91 0.93 0.96 0.92 0.90 0.92 0.98 1.09 1.12 1.12 1.13 1.05 0.88 0.67 0.58
0.06 0.12 0.25 0.38 0.89 1.08 0.85 0.60 0.34 0.30 0.23 0.29 0.44 0.38 0.53 0.76 0.61 0.76 0.87 0.71 0.50 0.43 0.49 0.55 0.51 0.45 0.44 0.42 0.46 0.58 0.68 0.74 0.74 0.83 0.94 1.02 1.17 1.13 1.12 1.14 1.24 1.25 1.16 1.05 0.98 0.96 0.76 0.59 0.55
0.05 0.11 0.19 0.32 0.58 0.62 0.46 0.40 0.29 0.28 0.26 0.25 0.36 0.48 0.70 0.66 0.62 0.74 0.72 0.62 0.42 0.37 0.39 0.40 0.45 0.45 0.46 0.46 0.48 0.54 0.65 0.72 0.75 0.79 0.91 1.00 1.19 1.32 1.33 1.29 1.32 1.26 1.07 0.97 0.91 0.86 0.68 0.58 0.57
0.03 0.09 0.19 0.27 0.34 0.42 0.38 0.34 0.27 0.29 0.26 0.31 0.42 0.73 1.06 0.88 0.66 0.66 0.65 0.58 0.46 0.38 0.37 0.35 0.40 0.42 0.45 0.47 0.52 0.56 0.57 0.67 0.66 0.64 0.73 0.88 1.07 1.33 1.34 1.29 1.23 1.08 1.00 0.97 0.91 0.81 0.66 0.64 0.62
0.02 0.06 0.16 0.19 0.24 0.30 0.30 0.26 0.26 0.23 0.26 0.39 0.56 0.83 1.07 1.01 0.90 0.89 0.88 0.75 0.70 0.52 0.40 0.42 0.47 0.44 0.42 0.42 0.48 0.50 0.53 0.58 0.62 0.61 0.66 0.82 0.98 1.10 1.15 1.13 1.05 0.97 0.97 0.95 0.91 0.80 0.68 0.62 0.59
0.02 0.04 0.09 0.11 0.16 0.20 0.23 0.20 0.22 0.23 0.32 0.49 0.66 0.98 1.11 1.21 1.12 1.03 1.17 1.24 1.03 0.75 0.56 0.51 0.46 0.39 0.39 0.43 0.44 0.49 0.53 0.62 0.67 0.67 0.75 0.91 0.92 0.97 0.96 1.01 1.01 1.00 0.98 0.98 0.86 0.71 0.62 0.56 0.53
0.02 0.04 0.07 0.07 0.09 0.16 0.15 0.16 0.17 0.22 0.36 0.46 0.61 1.00 1.24 1.13 1.16 1.20 1.38 1.51 1.42 1.04 0.82 0.64 0.61 0.59 0.48 0.42 0.49 0.54 0.59 0.69 0.77 0.79 0.88 1.03 1.02 1.00 1.06 1.04 1.03 1.03 1.08 1.03 0.87 0.66 0.54 0.53 0.53
0.02 0.04 0.05 0.05 0.06 0.11 0.10 0.15 0.19 0.17 0.23 0.40 0.57 0.85 0.93 0.86 0.99 1.13 1.36 1.53 1.71 1.48 1.11 0.89 0.79 0.79 0.72 0.58 0.55 0.65 0.71 0.80 0.86 0.98 1.09 1.29 1.32 1.26 1.36 1.22 1.25 1.21 1.24 1.16 1.01 0.85 0.73 0.65 0.63
0.01 0.02 0.03 0.03 0.04 0.05 0.08 0.13 0.18 0.16 0.35 0.61 0.73 0.82 0.74 0.86 0.96 1.16 1.30 1.39 1.56 1.65 1.24 1.11 0.91 0.80 0.78 0.87 1.09 1.13 0.94 1.03 1.20 1.40 1.54 1.80 1.83 1.78 1.46 1.52 1.63 1.72 1.82 1.68 1.55 1.44 1.14 0.96 0.89
0.01 0.02 0.02 0.02 0.02 0.03 0.08 0.08 0.14 0.18 0.50 0.96 1.11 1.11 1.01 0.97 1.10 1.34 1.55 1.59 1.48 1.56 1.33 1.24 1.20 1.15 1.01 1.14 1.31 1.38 1.33 1.41 1.46 1.56 1.70 1.86 1.65 1.58 1.59 1.70 1.92 2.04 2.11 1.99 2.06 2.05 1.73 1.67 1.66
0.00 0.01 0.01 0.02 0.01 0.03 0.06 0.07 0.12 0.21 0.50 0.79 1.07 1.04 1.16 1.12 1.21 1.44 1.74 1.90 1.90 2.01 1.73 1.56 1.59 1.46 1.34 1.33 1.46 1.48 1.50 1.46 1.51 1.68 1.65 1.80 1.93 1.92 1.97 2.13 2.11 2.18 2.33 2.62 2.33 2.46 2.34 2.18 2.05
0.00 0.00 0.01 0.01 0.01 0.03 0.06 0.13 0.15 0.24 0.37 0.57 0.82 0.83 0.87 1.17 1.54 1.90 2.24 2.24 2.37 2.53 2.45 2.16 1.91 1.71 1.67 1.80 1.79 1.68 1.70 1.67 1.77 1.95 1.92 1.96 2.18 2.26 2.32 2.29 2.31 2.12 2.28 2.60 2.69 2.54 2.74 2.82 2.62
0.00 0.01 0.01 0.02 0.02 0.04 0.08 0.19 0.26 0.35 0.44 0.51 0.77 1.00 1.04 1.38 1.71 2.25 2.88 2.77 2.55 2.73 2.82 2.61 2.38 2.21 2.18 2.30 2.37 2.22 2.01 2.12 2.19 2.20 2.08 2.14 2.39 2.65 2.75 2.59 2.55 2.38 2.35 2.56 2.68 2.69 3.22 3.16 3.01
0.01 0.01 0.03 0.05 0.06 0.10 0.15 0.35 0.49 0.50 0.48 0.57 0.87 1.18 1.40 1.56 1.89 2.21 2.57 2.88 3.02 3.11 3.03 2.97 2.90 2.79 2.81 2.76 2.72 2.51 2.41 2.26 2.30 2.39 2.45 2.42 2.45 2.73 2.83 2.81 2.68 2.56 2.49 2.67 2.73 2.93 3.20 2.95 2.82
0.01 0.03 0.06 0.10 0.10 0.12 0.20 0.59 0.59 0.49 0.51 0.82 1.03 1.36 1.63 1.71 1.98 2.38 2.71 3.21 3.45 3.48 3.46 3.41 3.24 3.25 3.26 3.19 3.07 2.90 2.74 2.49 2.31 2.33 2.49 2.52 2.56 2.71 2.86 2.68 2.54 2.73 2.79 2.93 3.13 3.20 3.21 3.10 2.99
0.04 0.05 0.09 0.13 0.12 0.12 0.19 0.44 0.58 0.53 0.73 1.00 1.25 1.56 1.86 2.10 2.55 3.01 3.26 3.37 3.70 4.00 4.12 4.09 4.02 3.81 3.55 3.46 3.45 3.47 3.38 3.06 2.72 2.64 2.65 2.65 2.50 2.55 2.76 2.67 2.73 2.86 2.95 3.02 2.77 3.22 3.22 3.21 3.09
0.05 0.06 0.12 0.15 0.14 0.15 0.24 0.40 0.51 0.59 0.82 1.22 1.58 1.85 2.12 2.51 2.99 3.33 3.60 3.93 4.06 4.30 4.75 4.67 4.47 4.36 4.27 4.17 3.90 3.87 3.63 3.31 3.14 3.05 3.10 2.90 2.73 2.69 2.89 2.80 2.84 2.93 3.08 3.12 3.11 3.33 3.28 3.08 3.04
0.06 0.08 0.14 0.17 0.15 0.18 0.34 0.53 0.58 0.76 1.06 1.35 1.68 1.93 2.26 2.58 2.96 3.38 3.47 3.69 3.99 4.58 5.01 5.20 5.18 4.99 4.69 4.28 3.86 3.67 3.58 3.52 3.32 3.14 2.96 2.84 2.78 2.87 3.13 2.98 3.14 3.11 2.97 2.98 3.13 3.33 3.13 2.90 2.98
0.07 0.11 0.15 0.17 0.15 0.17 0.32 0.53 0.65 1.00 1.32 1.36 1.52 1.67 1.85 2.30 2.64 2.95 3.12 3.21 3.61 4.18 4.60 4.74 4.50 4.36 4.18 3.91 3.79 3.78 3.97 3.65 3.34 3.16 2.96 2.73 2.71 2.81 2.77 2.97 2.86 2.91 3.04 2.99 3.03 3.26 3.05 2.64 2.77
0.05 0.07 0.12 0.18 0.17 0.24 0.35 0.67 0.88 1.14 1.27 1.30 1.39 1.54 1.66 1.95 2.26 2.57 2.68 2.84 3.05 3.14 3.39 3.56 3.71 3.63 3.50 3.47 3.45 3.50 3.70 3.44 3.19 3.01 2.90 2.60 2.47 2.45 2.53 2.60 2.68 2.96 2.97 2.98 3.05 3.03 2.89 2.59 2.53
0.06 0.07 0.07 0.09 0.17 0.30 0.45 0.98 1.23 1.20 1.26 1.40 1.39 1.38 1.62 1.91 1.90 2.01 2.21 2.39 2.64 2.75 2.94 3.00 3.03 3.13 3.16 3.24 3.14 2.98 2.88 2.76 2.66 2.67 2.64 2.61 2.50 2.40 2.40 2.42 2.47 2.55 2.54 2.64 2.41 2.52 2.72 2.83 2.53
0.05 0.05 0.06 0.10 0.20 0.32 0.45 0.76 1.16 1.51 1.58 1.40 1.34 1.23 1.41 1.56 1.46 1.45 1.62 1.76 1.98 2.15 2.38 2.53 2.64 2.73 2.86 2.92 2.84 2.80 2.59 2.57 2.58 2.56 2.59 2.53 2.46 2.43 2.40 2.37 2.35 2.23 2.17 2.30 2.29 2.43 2.47 2.47 2.41
0.04 0.07 0.12 0.24 0.43 0.66 0.56 0.70 1.09 1.46 1.72 1.46 1.26 1.17 1.26 1.24 1.21 1.33 1.44 1.53 1.65 1.87 2.03 2.18 2.33 2.39 2.52 2.58 2.61 2.58 2.52 2.52 2.50 2.45 2.42 2.38 2.38 2.30 2.26 2.23 2.22 2.09 2.08 2.15 2.21 2.30 2.25 2.27 2.35
0.06 0.13 0.46 0.82 1.11 1.13 0.73 0.78 1.14 1.15 1.18 1.19 1.15 1.19 1.19 1.11 1.05 1.06 1.16 1.30 1.46 1.64 1.75 1.81 1.96 2.05 2.07 2.13 2.19 2.19 2.28 2.38 2.24 2.14 2.15 2.13 1.98 1.88 1.96 1.89 1.96 1.95 1.98 2.01 2.09 2.17 2.14 2.22 2.32
0.10 0.15 0.50 0.77 0.83 0.94 0.82 1.09 1.42 1.14 1.05 0.98 1.06 1.15 1.13 1.00 0.91 0.94 1.05 1.10 1.17 1.33 1.51 1.57 1.69 1.80 1.93 1.97 1.96 1.97 1.99 2.02 1.91 1.93 1.91 1.87 1.66 1.57 1.75 1.89 1.92 1.91 1.90 1.92 2.10 1.99 1.98 2.13 2.17
0.15 0.18 0.23 0.44 0.49 0.70 0.91 1.21 1.38 1.08 1.04 1.16 1.28 1.24 1.16 0.93 0.78 0.78 0.80 0.86 0.87 0.96 1.09 1.23 1.50 1.65 1.73 1.80 1.80 1.74 1.70 1.74 1.75 1.78 1.88 1.81 1.75 1.61 1.69 1.77 1.89 1.93 2.00 2.08 2.12 1.99 2.11 2.34 2.23
0.15 0.16 0.19 0.36 0.54 0.75 0.89 1.26 1.55 1.50 1.34 1.28 1.35 1.18 0.90 0.75 0.64 0.59 0.61 0.62 0.69 0.77 0.85 1.00 1.22 1.33 1.43 1.57 1.63 1.49 1.63 1.75 1.76 1.74 1.64 1.63 1.65 1.64 1.59 1.60 1.69 1.70 1.76 1.89 2.02 1.96 2.07 2.30 2.24
0.19 0.21 0.29 0.40 0.44 0.65 1.01 1.23 1.18 1.23 1.16 1.21 1.19 1.01 0.75 0.63 0.56 0.57 0.57 0.60 0.66 0.71 0.81 0.97 1.21 1.36 1.36 1.45 1.53 1.53 1.62 1.74 1.76 1.67 1.58 1.56 1.56 1.61 1.56 1.57 1.58 1.54 1.50 1.57 1.73 1.74 1.93 1.95 1.92
0.17 0.19 0.28 0.42 0.42 0.46 0.70 0.92 0.67 0.72 0.74 0.81 0.85 0.74 0.63 0.60 0.58 0.63 0.66 0.67 0.68 0.76 0.86 0.99 1.15 1.33 1.39 1.49 1.66 1.79 1.74 1.68 1.68 1.67 1.58 1.50 1.43 1.49 1.57 1.63 1.52 1.38 1.41 1.50 1.52 1.59 1.78 1.84 1.82

GEFSSGP_prec_meanprecacc_234.txt.gz
Total_Precipitation_Accumulation
0.07 0.17 0.31 0.39 0.66 1.25 1.27 0.96 0.55 0.37 0.36 0.44 0.46 0.44 0.57 0.69 0.90 1.59 1.43 1.17 0.76 0.70 0.87 0.92 0.88 0.76 0.70 0.71 0.74 0.73 0.69 0.66 0.73 0.76 0.76 0.78 0.76 0.72 0.76 0.88 1.03 1.14 1.21 1.26 1.33 1.26 1.14 0.88 0.75
0.08 0.16 0.28 0.37 0.89 1.48 1.23 0.90 0.50 0.37 0.31 0.42 0.52 0.45 0.60 0.63 0.56 0.86 1.12 0.98 0.61 0.52 0.64 0.66 0.69 0.64 0.56 0.53 0.57 0.69 0.68 0.68 0.76 0.85 0.93 0.96 0.99 0.96 0.96 1.00 1.06 1.17 1.20 1.21 1.24 1.15 0.96 0.75 0.65
0.07 0.12 0.25 0.38 0.89 1.08 0.86 0.61 0.35 0.32 0.25 0.30 0.44 0.38 0.55 0.82 0.68 0.83 0.94 0.78 0.54 0.45 0.52 0.61 0.56 0.49 0.49 0.47 0.51 0.64 0.73 0.77 0.77 0.86 0.96 1.06 1.21 1.16 1.17 1.22 1.33 1.34 1.24 1.13 1.07 1.04 0.83 0.65 0.60
0.05 0.11 0.19 0.32 0.58 0.62 0.46 0.41 0.30 0.29 0.27 0.26 0.37 0.50 0.74 0.73 0.68 0.78 0.76 0.67 0.45 0.39 0.42 0.45 0.49 0.48 0.49 0.50 0.52 0.58 0.68 0.75 0.78 0.81 0.94 1.03 1.23 1.36 1.40 1.38 1.42 1.36 1.16 1.06 0.99 0.92 0.73 0.63 0.62
0.03 0.10 0.19 0.27 0.34 0.42 0.38 0.34 0.27 0.29 0.26 0.32 0.43 0.75 1.11 0.95 0.70 0.68 0.67 0.61 0.48 0.39 0.40 0.40 0.45 0.47 0.49 0.52 0.58 0.62 0.61 0.69 0.68 0.67 0.76 0.92 1.12 1.38 1.42 1.38 1.32 1.18 1.09 1.04 0.98 0.86 0.71 0.68 0.68
0.02 0.06 0.17 0.19 0.24 0.30 0.31 0.26 0.26 0.24 0.26 0.39 0.56 0.84 1.12 1.06 0.92 0.90 0.90 0.77 0.72 0.53 0.42 0.45 0.51 0.50 0.47 0.46 0.53 0.57 0.58 0.61 0.65 0.64 0.69 0.87 1.03 1.16 1.22 1.21 1.15 1.06 1.04 1.01 0.97 0.86 0.73 0.66 0.63
0.02 0.04 0.09 0.11 0.16 0.20 0.23 0.21 0.22 0.23 0.32 0.49 0.66 0.99 1.13 1.26 1.16 1.05 1.19 1.26 1.05 0.76 0.57 0.52 0.49 0.44 0.45 0.49 0.52 0.56 0.60 0.67 0.71 0.72 0.79 0.95 0.97 1.02 1.02 1.06 1.07 1.06 1.04 1.03 0.91 0.76 0.66 0.61 0.57
0.02 0.04 0.07 0.07 0.09 0.16 0.15 0.16 0.17 0.22 0.36 0.46 0.61 1.00 1.26 1.15 1.19 1.22 1.40 1.53 1.43 1.05 0.83 0.65 0.62 0.61 0.52 0.49 0.59 0.64 0.70 0.78 0.85 0.87 0.95 1.09 1.07 1.05 1.10 1.08 1.08 1.09 1.13 1.09 0.93 0.71 0.59 0.57 0.58
0.02 0.04 0.05 0.05 0.06 0.11 0.10 0.15 0.19 0.17 0.23 0.40 0.57 0.85 0.93 0.87 1.00 1.15 1.37 1.54 1.71 1.49 1.11 0.89 0.79 0.80 0.76 0.63 0.63 0.75 0.82 0.92 0.97 1.09 1.21 1.36 1.38 1.30 1.41 1.28 1.33 1.28 1.31 1.23 1.08 0.92 0.80 0.72 0.69
0.01 0.02 0.03 0.03 0.04 0.05 0.08 0.13 0.18 0.16 0.35 0.61 0.73 0.82 0.74 0.86 0.97 1.17 1.32 1.40 1.56 1.66 1.24 1.11 0.92 0.81 0.80 0.91 1.15 1.20 1.02 1.14 1.34 1.56 1.68 1.91 1.90 1.84 1.52 1.61 1.73 1.82 1.91 1.77 1.62 1.52 1.20 1.00 0.94
0.01 0.02 0.02 0.02 0.02 0.03 0.08 0.08 0.14 0.18 0.50 0.96 1.11 1.11 1.01 0.97 1.10 1.35 1.57 1.60 1.49 1.57 1.34 1.25 1.21 1.16 1.02 1.16 1.34 1.43 1.40 1.51 1.62 1.73 1.83 1.98 1.76 1.67 1.66 1.77 2.01 2.14 2.20 2.07 2.12 2.10 1.77 1.71 1.71
0.00 0.01 0.01 0.02 0.01 0.03 0.06 0.07 0.12 0.21 0.50 0.79 1.07 1.04 1.16 1.12 1.21 1.44 1.74 1.91 1.91 2.02 1.74 1.57 1.60 1.47 1.36 1.34 1.48 1.52 1.56 1.54 1.63 1.80 1.74 1.89 2.04 2.01 2.03 2.18 2.21 2.29 2.40 2.68 2.38 2.50 2.38 2.22 2.11
0.00 0.01 0.01 0.02 0.02 0.03 0.06 0.13 0.15 0.25 0.37 0.57 0.83 0.83 0.87 1.17 1.54 1.90 2.25 2.24 2.38 2.55 2.47 2.18 1.92 1.73 1.68 1.81 1.82 1.71 1.76 1.75 1.87 2.04 2.00 2.04 2.27 2.35 2.38 2.36 2.44 2.24 2.36 2.65 2.72 2.57 2.77 2.85 2.65
0.00 0.01 0.01 0.02 0.03 0.04 0.08 0.20 0.27 0.35 0.44 0.51 0.77 1.00 1.05 1.38 1.71 2.25 2.89 2.78 2.55 2.73 2.82 2.62 2.40 2.23 2.20 2.32 2.39 2.25 2.05 2.16 2.26 2.29 2.16 2.22 2.47 2.72 2.81 2.68 2.70 2.49 2.41 2.59 2.71 2.72 3.27 3.20 3.05
0.01 0.02 0.03 0.06 0.07 0.10 0.16 0.35 0.49 0.51 0.49 0.57 0.87 1.18 1.40 1.56 1.89 2.22 2.57 2.89 3.02 3.11 3.04 2.98 2.91 2.80 2.83 2.79 2.73 2.53 2.43 2.29 2.35 2.47 2.51 2.49 2.54 2.82 2.91 2.92 2.82 2.67 2.55 2.72 2.79 3.00 3.26 3.00 2.86
0.02 0.03 0.07 0.10 0.11 0.13 0.20 0.59 0.60 0.49 0.51 0.83 1.03 1.36 1.63 1.71 1.98 2.38 2.71 3.22 3.46 3.49 3.46 3.42 3.25 3.27 3.27 3.22 3.10 2.92 2.76 2.51 2.35 2.39 2.56 2.60 2.67 2.83 2.97 2.80 2.68 2.83 2.87 3.01 3.22 3.29 3.29 3.16 3.04
0.04 0.05 0.09 0.13 0.13 0.12 0.20 0.44 0.58 0.53 0.73 1.01 1.25 1.57 1.86 2.10 2.55 3.02 3.26 3.37 3.71 4.01 4.15 4.12 4.03 3.82 3.57 3.49 3.47 3.48 3.40 3.08 2.76 2.70 2.73 2.74 2.61 2.69 2.91 2.82 2.86 2.96 3.02 3.09 2.85 3.29 3.27 3.25 3.12
0.05 0.07 0.12 0.16 0.15 0.15 0.25 0.40 0.51 0.59 0.82 1.22 1.59 1.86 2.13 2.52 3.00 3.33 3.61 3.94 4.08 4.34 4.81 4.74 4.51 4.38 4.28 4.19 3.91 3.89 3.65 3.33 3.18 3.10 3.17 2.99 2.83 2.82 3.03 2.95 3.00 3.06 3.17 3.19 3.15 3.36 3.31 3.12 3.07
0.06 0.08 0.14 0.17 0.16 0.18 0.34 0.54 0.58 0.76 1.06 1.36 1.70 1.95 2.28 2.61 2.98 3.39 3.48 3.70 4.01 4.62 5.06 5.26 5.24 5.02 4.71 4.30 3.87 3.69 3.60 3.55 3.37 3.19 3.03 2.93 2.86 2.97 3.25 3.10 3.29 3.24 3.05 3.04 3.17 3.36 3.17 2.92 3.00
0.07 0.11 0.15 0.17 0.15 0.18 0.32 0.53 0.65 1.00 1.32 1.37 1.54 1.69 1.89 2.33 2.65 2.97 3.14 3.22 3.62 4.20 4.63 4.77 4.53 4.38 4.21 3.92 3.80 3.79 3.99 3.68 3.38 3.20 3.02 2.80 2.79 2.91 2.88 3.09 2.95 2.99 3.11 3.05 3.08 3.30 3.09 2.66 2.79
0.05 0.07 0.12 0.18 0.17 0.24 0.35 0.67 0.89 1.14 1.28 1.31 1.42 1.58 1.69 1.97 2.28 2.58 2.69 2.86 3.07 3.16 3.42 3.58 3.73 3.65 3.53 3.50 3.48 3.51 3.71 3.46 3.22 3.04 2.94 2.64 2.52 2.51 2.60 2.67 2.73 3.00 3.01 3.03 3.10 3.06 2.92 2.61 2.55
0.06 0.07 0.07 0.09 0.17 0.31 0.45 0.98 1.23 1.21 1.26 1.40 1.40 1.39 1.64 1.93 1.92 2.02 2.24 2.41 2.65 2.78 2.97 3.02 3.05 3.17 3.20 3.28 3.18 3.01 2.90 2.78 2.68 2.70 2.68 2.65 2.53 2.43 2.43 2.47 2.50 2.57 2.56 2.67 2.45 2.55 2.74 2.84 2.55
0.05 0.05 0.06 0.10 0.20 0.33 0.45 0.77 1.16 1.51 1.58 1.40 1.34 1.24 1.44 1.58 1.48 1.46 1.63 1.77 1.99 2.18 2.41 2.57 2.68 2.77 2.89 2.96 2.87 2.83 2.61 2.59 2.61 2.59 2.63 2.57 2.49 2.47 2.44 2.44 2.40 2.27 2.19 2.32 2.32 2.46 2.49 2.49 2.43
0.04 0.07 0.13 0.25 0.43 0.67 0.57 0.70 1.09 1.46 1.72 1.46 1.26 1.18 1.28 1.25 1.22 1.34 1.45 1.54 1.67 1.91 2.09 2.23 2.37 2.43 2.55 2.61 2.64 2.60 2.54 2.54 2.51 2.47 2.45 2.42 2.42 2.34 2.30 2.27 2.25 2.12 2.11 2.18 2.25 2.34 2.29 2.30 2.38
0.06 0.13 0.46 0.82 1.11 1.13 0.73 0.78 1.14 1.15 1.18 1.19 1.15 1.19 1.20 1.13 1.05 1.07 1.17 1.32 1.48 1.67 1.78 1.86 1.99 2.08 2.10 2.15 2.21 2.21 2.29 2.40 2.26 2.15 2.17 2.16 2.01 1.92 1.99 1.93 2.00 1.98 2.01 2.05 2.14 2.21 2.18 2.26 2.35
0.11 0.15 0.50 0.77 0.83 0.94 0.82 1.09 1.42 1.14 1.06 0.99 1.06 1.16 1.14 1.00 0.91 0.95 1.06 1.12 1.19 1.35 1.54 1.59 1.70 1.81 1.94 1.98 1.97 1.99 2.00 2.03 1.92 1.96 1.93 1.90 1.69 1.60 1.78 1.93 1.95 1.94 1.94 1.97 2.15 2.04 2.04 2.17 2.20
0.15 0.18 0.23 0.44 0.49 0.71 0.91 1.21 1.38 1.08 1.05 1.16 1.28 1.25 1.16 0.94 0.78 0.79 0.82 0.87 0.88 0.98 1.11 1.24 1.51 1.65 1.74 1.81 1.81 1.75 1.72 1.76 1.76 1.80 1.90 1.83 1.78 1.64 1.72 1.79 1.91 1.95 2.03 2.12 2.18 2.05 2.16 2.37 2.27
0.15 0.16 0.19 0.36 0.54 0.75 0.89 1.26 1.55 1.50 1.34 1.28 1.35 1.19 0.91 0.76 0.64 0.60 0.61 0.63 0.70 0.78 0.86 1.01 1.23 1.34 1.44 1.59 1.65 1.52 1.67 1.78 1.79 1.77 1.66 1.65 1.67 1.67 1.62 1.62 1.70 1.72 1.78 1.93 2.07 2.00 2.12 2.34 2.29
0.19 0.21 0.29 0.40 0.44 0.65 1.01 1.23 1.18 1.23 1.16 1.21 1.19 1.01 0.75 0.63 0.57 0.57 0.57 0.60 0.67 0.72 0.82 0.98 1.22 1.37 1.36 1.46 1.55 1.56 1.66 1.78 1.80 1.71 1.60 1.58 1.58 1.63 1.58 1.58 1.59 1.56 1.52 1.60 1.76 1.78 1.97 1.99 1.96
0.17 0.19 0.28 0.42 0.42 0.46 0.70 0.92 0.67 0.72 0.74 0.81 0.85 0.74 0.63 0.61 0.58 0.64 0.67 0.68 0.69 0.77 0.87 1.01 1.16 1.34 1.40 1.51 1.67 1.81 1.77 1.71 1.71 1.69 1.60 1.52 1.45 1.52 1.59 1.64 1.54 1.40 1.42 1.53 1.55 1.64 1.84 1.88 1.85

GEFSSGP_prec_meanprecacc_240.txt.gz
Total_Precipitation_Accumulation
0.07 0.17 0.32 0.39 0.66 1.25 1.28 1.00 0.58 0.38 0.38 0.45 0.46 0.46 0.59 0.71 0.94 1.68 1.55 1.32 0.87 0.79 1.00 1.06 1.02 0.88 0.81 0.80 0.82 0.82 0.76 0.71 0.78 0.80 0.82 0.87 0.91 0.87 0.91 1.03 1.14 1.23 1.29 1.35 1.45 1.41 1.30 1.02 0.87
0.08 0.17 0.28 0.37 0.89 1.48 1.25 0.92 0.52 0.39 0.33 0.43 0.53 0.46 0.61 0.65 0.60 0.93 1.21 1.08 0.69 0.59 0.75 0.77 0.80 0.75 0.66 0.60 0.64 0.75 0.74 0.74 0.80 0.89 0.97 1.02 1.10 1.09 1.10 1.12 1.18 1.27 1.29 1.31 1.35 1.26 1.07 0.86 0.75
0.07 0.12 0.25 0.38 0.89 1.09 0.87 0.63 0.37 0.32 0.26 0.32 0.45 0.39 0.56 0.84 0.72 0.89 1.01 0.84 0.61 0.54 0.64 0.72 0.66 0.59 0.59 0.55 0.56 0.69 0.79 0.83 0.82 0.90 1.01 1.11 1.28 1.26 1.29 1.35 1.44 1.44 1.34 1.25 1.19 1.15 0.93 0.75 0.67
0.05 0.11 0.19 0.32 0.58 0.62 0.47 0.41 0.30 0.29 0.27 0.27 0.38 0.51 0.76 0.76 0.72 0.83 0.82 0.72 0.50 0.46 0.52 0.53 0.60 0.59 0.57 0.58 0.58 0.63 0.74 0.80 0.83 0.87 1.00 1.09 1.29 1.44 1.50 1.49 1.53 1.47 1.27 1.16 1.08 1.01 0.81 0.71 0.69
0.03 0.10 0.19 0.27 0.34 0.43 0.38 0.34 0.28 0.29 0.26 0.32 0.44 0.76 1.13 0.98 0.73 0.72 0.70 0.63 0.50 0.44 0.49 0.50 0.54 0.57 0.59 0.58 0.63 0.67 0.67 0.75 0.74 0.72 0.82 0.98 1.18 1.46 1.49 1.46 1.41 1.27 1.18 1.12 1.05 0.93 0.77 0.74 0.73
0.02 0.06 0.17 0.19 0.24 0.30 0.31 0.26 0.26 0.24 0.26 0.39 0.57 0.85 1.14 1.09 0.95 0.92 0.91 0.78 0.73 0.56 0.46 0.51 0.60 0.58 0.55 0.52 0.58 0.62 0.65 0.67 0.70 0.68 0.74 0.92 1.09 1.23 1.28 1.27 1.20 1.11 1.11 1.08 1.03 0.92 0.79 0.71 0.67
0.02 0.04 0.09 0.11 0.16 0.20 0.23 0.21 0.22 0.23 0.32 0.49 0.66 0.99 1.15 1.28 1.18 1.06 1.19 1.27 1.06 0.77 0.59 0.56 0.55 0.51 0.51 0.56 0.57 0.62 0.66 0.73 0.76 0.76 0.84 1.01 1.03 1.09 1.08 1.11 1.11 1.11 1.09 1.08 0.97 0.83 0.71 0.64 0.59
0.02 0.04 0.07 0.07 0.09 0.16 0.15 0.16 0.17 0.22 0.36 0.46 0.62 1.00 1.27 1.17 1.20 1.23 1.41 1.54 1.44 1.06 0.84 0.68 0.67 0.67 0.57 0.54 0.65 0.70 0.77 0.86 0.92 0.93 1.01 1.15 1.14 1.11 1.15 1.12 1.12 1.13 1.17 1.13 0.98 0.76 0.63 0.60 0.60
0.02 0.04 0.05 0.05 0.06 0.11 0.10 0.15 0.19 0.17 0.23 0.40 0.57 0.85 0.94 0.88 1.02 1.16 1.38 1.55 1.72 1.50 1.12 0.90 0.82 0.85 0.80 0.68 0.68 0.82 0.89 0.99 1.04 1.18 1.29 1.43 1.45 1.35 1.44 1.32 1.38 1.33 1.36 1.27 1.13 0.96 0.84 0.75 0.72
0.01 0.02 0.03 0.03 0.04 0.05 0.08 0.13 0.18 0.16 0.35 0.61 0.73 0.83 0.75 0.88 0.98 1.18 1.33 1.42 1.58 1.67 1.25 1.12 0.94 0.84 0.85 0.96 1.21 1.26 1.08 1.21 1.42 1.65 1.78 2.00 1.98 1.88 1.56 1.65 1.78 1.88 1.99 1.84 1.68 1.57 1.24 1.03 0.97
0.01 0.02 0.02 0.02 0.02 0.03 0.08 0.08 0.14 0.18 0.50 0.96 1.11 1.11 1.02 0.98 1.11 1.36 1.58 1.61 1.51 1.58 1.34 1.25 1.22 1.20 1.08 1.22 1.40 1.48 1.47 1.61 1.73 1.83 1.95 2.08 1.83 1.73 1.72 1.84 2.07 2.21 2.27 2.13 2.18 2.15 1.82 1.75 1.75
0.00 0.01 0.01 0.02 0.01 0.03 0.06 0.07 0.12 0.21 0.50 0.79 1.07 1.04 1.17 1.13 1.21 1.45 1.75 1.91 1.92 2.03 1.75 1.58 1.61 1.52 1.43 1.42 1.55 1.59 1.63 1.64 1.75 1.92 1.86 1.98 2.11 2.07 2.09 2.26 2.27 2.35 2.48 2.75 2.43 2.56 2.44 2.27 2.15
0.00 0.01 0.01 0.02 0.02 0.03 0.06 0.13 0.15 0.25 0.37 0.57 0.83 0.83 0.87 1.17 1.54 1.91 2.25 2.24 2.39 2.57 2.49 2.20 1.96 1.78 1.76 1.90 1.90 1.80 1.85 1.86 2.00 2.17 2.11 2.11 2.34 2.41 2.44 2.43 2.51 2.32 2.43 2.71 2.80 2.63 2.83 2.91 2.71
0.00 0.01 0.01 0.02 0.03 0.04 0.08 0.20 0.27 0.35 0.44 0.51 0.77 1.00 1.05 1.38 1.72 2.27 2.91 2.80 2.57 2.75 2.84 2.64 2.42 2.26 2.25 2.40 2.48 2.35 2.14 2.29 2.39 2.39 2.24 2.29 2.53 2.78 2.88 2.75 2.80 2.59 2.50 2.65 2.77 2.78 3.34 3.27 3.12
0.01 0.02 0.03 0.06 0.07 0.10 0.16 0.35 0.49 0.51 0.49 0.57 0.87 1.18 1.40 1.56 1.89 2.22 2.59 2.91 3.04 3.13 3.05 2.99 2.92 2.82 2.88 2.86 2.82 2.61 2.52 2.42 2.50 2.57 2.60 2.58 2.62 2.90 3.00 3.02 2.95 2.78 2.65 2.81 2.86 3.07 3.32 3.06 2.92
0.02 0.03 0.07 0.10 0.11 0.13 0.20 0.59 0.60 0.50 0.52 0.83 1.03 1.36 1.63 1.72 1.99 2.39 2.72 3.24 3.48 3.50 3.48 3.43 3.26 3.29 3.32 3.29 3.19 2.99 2.84 2.66 2.51 2.51 2.67 2.69 2.77 2.94 3.11 2.96 2.81 2.93 2.96 3.08 3.29 3.37 3.36 3.23 3.11
0.04 0.05 0.09 0.13 0.13 0.12 0.20 0.44 0.58 0.53 0.74 1.02 1.26 1.57 1.86 2.11 2.55 3.03 3.27 3.38 3.73 4.03 4.18 4.16 4.05 3.84 3.61 3.54 3.54 3.56 3.49 3.21 2.89 2.82 2.83 2.84 2.73 2.81 3.04 2.98 3.00 3.06 3.12 3.16 2.91 3.34 3.33 3.32 3.19
0.05 0.07 0.12 0.16 0.15 0.15 0.25 0.40 0.51 0.60 0.83 1.24 1.62 1.86 2.13 2.53 3.01 3.34 3.61 3.95 4.09 4.35 4.83 4.76 4.54 4.42 4.32 4.22 3.97 3.95 3.71 3.39 3.25 3.21 3.31 3.12 2.97 2.93 3.13 3.08 3.12 3.17 3.27 3.28 3.23 3.44 3.39 3.20 3.14
0.06 0.08 0.14 0.17 0.16 0.18 0.34 0.54 0.58 0.76 1.06 1.37 1.71 1.95 2.29 2.61 2.98 3.39 3.48 3.71 4.03 4.63 5.08 5.28 5.27 5.05 4.75 4.33 3.92 3.75 3.66 3.61 3.44 3.30 3.16 3.06 2.99 3.07 3.35 3.21 3.41 3.34 3.16 3.13 3.24 3.44 3.26 3.01 3.07
0.07 0.11 0.15 0.17 0.15 0.18 0.32 0.53 0.65 1.01 1.32 1.37 1.54 1.70 1.90 2.33 2.66 2.97 3.14 3.23 3.64 4.22 4.64 4.79 4.54 4.40 4.22 3.94 3.83 3.83 4.02 3.71 3.44 3.28 3.12 2.90 2.89 3.00 2.98 3.23 3.10 3.09 3.20 3.13 3.15 3.38 3.16 2.74 2.86
0.05 0.07 0.12 0.18 0.17 0.24 0.35 0.67 0.89 1.14 1.28 1.32 1.42 1.58 1.69 1.97 2.29 2.60 2.71 2.87 3.07 3.17 3.43 3.59 3.74 3.66 3.54 3.52 3.49 3.53 3.73 3.48 3.26 3.10 3.02 2.71 2.58 2.59 2.69 2.76 2.81 3.09 3.08 3.10 3.18 3.14 3.01 2.70 2.62
0.06 0.07 0.07 0.09 0.17 0.31 0.45 0.98 1.23 1.21 1.26 1.40 1.40 1.39 1.64 1.93 1.92 2.03 2.24 2.42 2.66 2.78 2.97 3.03 3.06 3.18 3.22 3.30 3.19 3.02 2.91 2.80 2.71 2.76 2.73 2.70 2.57 2.48 2.49 2.53 2.56 2.63 2.61 2.73 2.51 2.61 2.83 2.93 2.63
0.05 0.05 0.06 0.10 0.20 0.33 0.45 0.77 1.16 1.51 1.58 1.40 1.34 1.24 1.44 1.58 1.48 1.46 1.64 1.78 2.00 2.18 2.42 2.57 2.69 2.78 2.91 2.97 2.88 2.84 2.62 2.60 2.63 2.62 2.66 2.61 2.55 2.53 2.50 2.50 2.46 2.32 2.24 2.37 2.39 2.54 2.56 2.57 2.51
0.04 0.07 0.13 0.25 0.43 0.67 0.57 0.70 1.09 1.46 1.72 1.46 1.26 1.18 1.28 1.25 1.22 1.34 1.45 1.54 1.68 1.92 2.10 2.24 2.38 2.44 2.56 2.61 2.64 2.60 2.55 2.55 2.53 2.50 2.49 2.47 2.47 2.38 2.34 2.33 2.30 2.17 2.16 2.24 2.32 2.41 2.35 2.37 2.46
0.06 0.13 0.46 0.82 1.11 1.13 0.73 0.78 1.14 1.15 1.18 1.19 1.15 1.19 1.20 1.13 1.06 1.07 1.17 1.32 1.49 1.69 1.80 1.87 2.00 2.08 2.10 2.16 2.21 2.22 2.30 2.41 2.28 2.18 2.20 2.19 2.06 1.96 2.03 1.96 2.03 2.02 2.06 2.10 2.20 2.27 2.25 2.34 2.46
0.11 0.15 0.50 0.77 0.83 0.94 0.82 1.09 1.42 1.14 1.06 0.99 1.06 1.16 1.14 1.00 0.91 0.95 1.07 1.13 1.20 1.37 1.55 1.59 1.70 1.81 1.95 1.99 1.97 1.99 2.01 2.03 1.93 1.97 1.95 1.92 1.72 1.64 1.81 1.96 1.98 1.97 1.97 2.00 2.20 2.09 2.10 2.25 2.29
0.15 0.18 0.23 0.44 0.49 0.71 0.91 1.21 1.38 1.08 1.05 1.16 1.28 1.25 1.16 0.94 0.78 0.79 0.82 0.87 0.89 0.99 1.12 1.25 1.51 1.66 1.74 1.81 1.82 1.76 1.72 1.76 1.77 1.81 1.92 1.84 1.80 1.67 1.75 1.81 1.93 1.97 2.05 2.15 2.23 2.09 2.22 2.43 2.33
0.15 0.16 0.19 0.36 0.54 0.75 0.89 1.26 1.55 1.50 1.34 1.28 1.35 1.19 0.91 0.76 0.65 0.60 0.62 0.63 0.70 0.78 0.87 1.01 1.24 1.35 1.44 1.59 1.65 1.52 1.67 1.79 1.81 1.79 1.68 1.66 1.68 1.69 1.64 1.64 1.72 1.75 1.82 1.96 2.11 2.04 2.16 2.40 2.36
0.19 0.21 0.29 0.40 0.44 0.65 1.01 1.23 1.18 1.23 1.16 1.21 1.19 1.01 0.75 0.63 0.57 0.57 0.57 0.61 0.67 0.72 0.83 0.99 1.23 1.37 1.36 1.46 1.55 1.57 1.67 1.78 1.80 1.72 1.61 1.60 1.60 1.65 1.60 1.61 1.62 1.59 1.55 1.63 1.79 1.81 2.00 2.03 2.02
0.17 0.19 0.28 0.42 0.42 0.46 0.70 0.92 0.67 0.72 0.74 0.81 0.85 0.74 0.64 0.61 0.58 0.64 0.67 0.68 0.69 0.78 0.88 1.01 1.16 1.34 1.40 1.51 1.68 1.82 1.77 1.71 1.72 1.70 1.61 1.53 1.47 1.54 1.61 1.67 1.57 1.44 1.46 1.56 1.59 1.67 1.87 1.92 1.90

GEFSSGP_prec_meanprecacc_246.txt.gz
Total_Precipitation_Accumulation
0.07 0.18 0.33 0.41 0.69 1.27 1.31 1.04 0.61 0.39 0.40 0.46 0.47 0.48 0.61 0.74 0.98 1.81 1.78 1.56 1.03 0.90 1.10 1.15 1.14 0.98 0.89 0.89 0.92 0.88 0.80 0.75 0.81 0.84 0.90 1.00 1.08 1.04 1.02 1.13 1.26 1.35 1.41 1.47 1.57 1.56 1.47 1.23 1.04
0.09 0.17 0.29 0.38 0.91 1.49 1.28 0.95 0.54 0.42 0.35 0.44 0.54 0.48 0.62 0.68 0.65 1.07 1.41 1.26 0.81 0.68 0.82 0.85 0.91 0.85 0.73 0.65 0.69 0.79 0.77 0.77 0.83 0.92 1.05 1.17 1.28 1.24 1.25 1.27 1.31 1.39 1.40 1.43 1.48 1.42 1.24 1.04 0.91
0.07 0.13 0.25 0.38 0.89 1.09 0.88 0.64 0.38 0.34 0.28 0.33 0.46 0.40 0.59 0.90 0.79 1.00 1.15 0.96 0.69 0.60 0.69 0.78 0.72 0.64 0.64 0.59 0.59 0.72 0.82 0.86 0.85 0.93 1.05 1.20 1.42 1.44 1.48 1.51 1.58 1.55 1.44 1.36 1.33 1.28 1.08 0.90 0.79
0.05 0.11 0.19 0.32 0.58 0.63 0.47 0.42 0.31 0.29 0.28 0.28 0.39 0.53 0.81 0.82 0.76 0.90 0.89 0.79 0.55 0.50 0.56 0.57 0.67 0.66 0.63 0.62 0.62 0.67 0.77 0.85 0.87 0.90 1.05 1.20 1.45 1.62 1.67 1.62 1.64 1.57 1.38 1.28 1.20 1.11 0.91 0.79 0.75
0.03 0.10 0.20 0.27 0.34 0.43 0.38 0.34 0.28 0.29 0.27 0.32 0.44 0.78 1.18 1.03 0.77 0.75 0.74 0.67 0.54 0.47 0.54 0.55 0.62 0.64 0.64 0.62 0.68 0.72 0.71 0.79 0.79 0.76 0.87 1.07 1.30 1.60 1.63 1.57 1.51 1.37 1.28 1.24 1.16 1.01 0.83 0.79 0.80
0.02 0.06 0.17 0.19 0.24 0.30 0.31 0.26 0.26 0.24 0.27 0.39 0.57 0.86 1.18 1.13 0.97 0.93 0.93 0.79 0.75 0.58 0.49 0.56 0.66 0.66 0.63 0.59 0.64 0.66 0.68 0.70 0.73 0.72 0.79 0.97 1.16 1.32 1.38 1.35 1.28 1.19 1.19 1.16 1.10 0.97 0.84 0.76 0.73
0.02 0.04 0.09 0.11 0.16 0.20 0.23 0.21 0.22 0.23 0.32 0.49 0.66 0.99 1.17 1.31 1.19 1.06 1.20 1.27 1.06 0.78 0.62 0.59 0.58 0.54 0.56 0.60 0.62 0.66 0.69 0.76 0.80 0.80 0.88 1.05 1.08 1.14 1.15 1.18 1.17 1.16 1.14 1.13 1.02 0.87 0.74 0.67 0.63
0.02 0.04 0.07 0.07 0.09 0.16 0.15 0.16 0.17 0.22 0.36 0.46 0.62 1.01 1.29 1.19 1.21 1.24 1.41 1.54 1.45 1.07 0.86 0.71 0.70 0.69 0.59 0.58 0.68 0.74 0.81 0.89 0.96 0.98 1.05 1.19 1.18 1.15 1.20 1.16 1.16 1.16 1.20 1.16 1.01 0.79 0.65 0.62 0.63
0.02 0.04 0.05 0.05 0.06 0.11 0.10 0.15 0.19 0.17 0.23 0.40 0.57 0.85 0.95 0.89 1.02 1.17 1.39 1.57 1.74 1.51 1.13 0.93 0.85 0.87 0.83 0.70 0.72 0.87 0.94 1.04 1.10 1.25 1.37 1.54 1.56 1.40 1.50 1.36 1.41 1.36 1.38 1.30 1.16 0.99 0.86 0.78 0.74
0.01 0.02 0.03 0.03 0.04 0.05 0.08 0.13 0.18 0.16 0.35 0.61 0.73 0.84 0.76 0.89 0.99 1.19 1.34 1.45 1.62 1.68 1.26 1.13 0.96 0.86 0.87 0.99 1.25 1.34 1.14 1.27 1.51 1.73 1.86 2.10 2.06 1.95 1.60 1.69 1.81 1.91 2.02 1.87 1.71 1.61 1.27 1.08 1.02
0.01 0.02 0.02 0.02 0.02 0.03 0.08 0.08 0.14 0.18 0.50 0.96 1.11 1.13 1.04 0.99 1.11 1.36 1.59 1.65 1.53 1.59 1.35 1.27 1.24 1.22 1.11 1.26 1.45 1.54 1.52 1.68 1.81 1.89 2.00 2.15 1.88 1.78 1.77 1.91 2.14 2.26 2.32 2.18 2.23 2.21 1.88 1.81 1.81
0.00 0.01 0.01 0.02 0.01 0.03 0.06 0.08 0.12 0.21 0.50 0.80 1.07 1.04 1.18 1.14 1.22 1.46 1.77 1.94 1.94 2.06 1.82 1.64 1.65 1.56 1.48 1.45 1.59 1.65 1.70 1.72 1.85 1.98 1.92 2.03 2.16 2.13 2.18 2.37 2.36 2.44 2.56 2.83 2.50 2.63 2.48 2.31 2.18
0.00 0.01 0.01 0.02 0.02 0.03 0.07 0.15 0.15 0.25 0.37 0.57 0.83 0.83 0.88 1.18 1.54 1.91 2.26 2.25 2.40 2.61 2.56 2.29 2.02 1.86 1.81 1.93 1.94 1.84 1.91 1.96 2.07 2.22 2.15 2.15 2.39 2.47 2.52 2.50 2.58 2.37 2.47 2.77 2.85 2.68 2.87 2.95 2.74
0.00 0.01 0.01 0.02 0.03 0.04 0.09 0.21 0.28 0.36 0.44 0.51 0.77 1.00 1.05 1.39 1.73 2.27 2.91 2.81 2.60 2.80 2.88 2.67 2.48 2.34 2.29 2.43 2.51 2.40 2.20 2.37 2.45 2.44 2.28 2.33 2.57 2.84 2.95 2.81 2.86 2.65 2.54 2.70 2.81 2.82 3.38 3.31 3.16
0.01 0.02 0.03 0.06 0.07 0.10 0.16 0.37 0.51 0.51 0.49 0.57 0.87 1.18 1.40 1.57 1.90 2.23 2.60 2.93 3.07 3.18 3.09 3.02 2.98 2.89 2.92 2.89 2.86 2.66 2.58 2.48 2.56 2.63 2.65 2.61 2.65 2.96 3.07 3.11 3.05 2.87 2.72 2.86 2.90 3.11 3.36 3.10 2.96
0.02 0.03 0.07 0.11 0.11 0.13 0.22 0.61 0.61 0.51 0.52 0.83 1.03 1.36 1.65 1.73 1.99 2.39 2.73 3.25 3.51 3.55 3.52 3.50 3.33 3.36 3.38 3.35 3.25 3.08 2.93 2.75 2.59 2.58 2.72 2.74 2.82 3.03 3.20 3.06 2.94 3.06 3.07 3.18 3.36 3.43 3.41 3.28 3.15
0.05 0.08 0.13 0.14 0.13 0.12 0.20 0.46 0.59 0.55 0.74 1.02 1.26 1.57 1.87 2.12 2.55 3.03 3.28 3.39 3.75 4.06 4.21 4.22 4.11 3.91 3.68 3.63 3.62 3.65 3.59 3.33 3.01 2.90 2.89 2.89 2.78 2.89 3.13 3.09 3.14 3.19 3.24 3.28 3.00 3.43 3.41 3.41 3.26
0.06 0.08 0.13 0.17 0.15 0.15 0.25 0.41 0.52 0.60 0.83 1.24 1.62 1.86 2.13 2.53 3.01 3.34 3.62 3.95 4.09 4.36 4.85 4.80 4.60 4.48 4.40 4.30 4.07 4.07 3.83 3.51 3.38 3.32 3.39 3.20 3.06 3.01 3.22 3.19 3.26 3.29 3.38 3.40 3.35 3.56 3.49 3.32 3.22
0.06 0.09 0.15 0.18 0.16 0.18 0.34 0.54 0.58 0.76 1.06 1.37 1.72 1.96 2.29 2.62 2.98 3.39 3.48 3.71 4.03 4.64 5.09 5.31 5.31 5.11 4.81 4.43 4.04 3.87 3.78 3.73 3.56 3.43 3.30 3.16 3.07 3.15 3.45 3.33 3.57 3.50 3.28 3.23 3.33 3.54 3.39 3.13 3.16
0.07 0.11 0.15 0.17 0.15 0.18 0.32 0.53 0.65 1.01 1.33 1.39 1.56 1.70 1.90 2.33 2.66 2.98 3.15 3.23 3.64 4.23 4.66 4.80 4.57 4.44 4.27 4.02 3.92 3.91 4.11 3.80 3.53 3.42 3.28 3.00 2.98 3.08 3.09 3.36 3.25 3.25 3.33 3.24 3.25 3.47 3.27 2.85 2.96
0.05 0.07 0.12 0.18 0.17 0.24 0.35 0.68 0.89 1.14 1.28 1.32 1.42 1.58 1.69 1.97 2.29 2.60 2.71 2.87 3.08 3.18 3.43 3.60 3.77 3.69 3.58 3.56 3.54 3.59 3.80 3.56 3.37 3.25 3.17 2.82 2.68 2.69 2.80 2.88 2.94 3.24 3.18 3.21 3.28 3.22 3.11 2.81 2.74
0.06 0.07 0.07 0.09 0.17 0.31 0.45 0.99 1.24 1.21 1.26 1.40 1.40 1.39 1.64 1.93 1.93 2.04 2.25 2.42 2.67 2.79 2.98 3.04 3.08 3.20 3.23 3.31 3.22 3.06 2.96 2.87 2.82 2.88 2.84 2.80 2.68 2.59 2.62 2.65 2.69 2.76 2.69 2.83 2.58 2.69 2.91 3.03 2.76
0.05 0.05 0.06 0.10 0.20 0.33 0.45 0.77 1.17 1.51 1.58 1.40 1.34 1.24 1.44 1.58 1.49 1.48 1.64 1.78 2.00 2.19 2.42 2.58 2.70 2.80 2.92 2.98 2.90 2.86 2.64 2.63 2.68 2.69 2.74 2.70 2.67 2.65 2.62 2.60 2.56 2.43 2.32 2.45 2.46 2.64 2.65 2.67 2.62
0.04 0.07 0.13 0.25 0.43 0.67 0.57 0.71 1.12 1.48 1.72 1.46 1.26 1.18 1.28 1.26 1.23 1.34 1.45 1.55 1.68 1.92 2.10 2.25 2.40 2.46 2.57 2.62 2.65 2.62 2.57 2.57 2.57 2.54 2.54 2.53 2.55 2.46 2.42 2.39 2.38 2.25 2.24 2.32 2.40 2.48 2.42 2.46 2.58
0.06 0.13 0.46 0.83 1.11 1.14 0.73 0.79 1.15 1.15 1.18 1.20 1.15 1.19 1.20 1.13 1.06 1.07 1.18 1.32 1.49 1.69 1.81 1.87 2.01 2.10 2.11 2.16 2.22 2.23 2.31 2.43 2.30 2.21 2.23 2.24 2.09 1.99 2.07 2.01 2.09 2.08 2.12 2.16 2.27 2.34 2.31 2.42 2.58
0.11 0.15 0.51 0.79 0.85 0.94 0.82 1.09 1.42 1.14 1.06 0.99 1.06 1.16 1.14 1.00 0.91 0.95 1.07 1.13 1.20 1.37 1.55 1.59 1.70 1.81 1.96 1.99 1.98 2.01 2.03 2.05 1.95 2.00 1.98 1.95 1.73 1.66 1.84 1.99 2.02 2.01 2.01 2.05 2.28 2.15 2.16 2.33 2.38
0.15 0.18 0.23 0.45 0.51 0.71 0.92 1.21 1.38 1.08 1.05 1.16 1.28 1.25 1.18 0.95 0.78 0.79 0.82 0.87 0.89 0.99 1.12 1.25 1.51 1.66 1.75 1.82 1.83 1.77 1.74 1.78 1.79 1.84 1.94 1.86 1.82 1.69 1.78 1.86 1.97 2.00 2.09 2.20 2.28 2.15 2.28 2.50 2.39
0.15 0.16 0.19 0.36 0.54 0.75 0.89 1.26 1.56 1.51 1.34 1.28 1.35 1.19 0.91 0.77 0.65 0.60 0.62 0.63 0.70 0.79 0.87 1.01 1.24 1.35 1.44 1.60 1.66 1.53 1.69 1.80 1.82 1.80 1.70 1.68 1.71 1.72 1.67 1.67 1.76 1.78 1.86 2.02 2.16 2.09 2.23 2.48 2.44
0.19 0.21 0.29 0.40 0.44 0.65 1.02 1.23 1.18 1.23 1.16 1.21 1.19 1.02 0.76 0.63 0.57 0.57 0.58 0.61 0.67 0.72 0.83 1.00 1.23 1.37 1.37 1.46 1.55 1.57 1.67 1.79 1.81 1.73 1.63 1.62 1.63 1.68 1.62 1.63 1.66 1.65 1.62 1.70 1.85 1.86 2.06 2.11 2.11
0.17 0.19 0.28 0.42 0.42 0.46 0.70 0.92 0.67 0.72 0.75 0.81 0.85 0.74 0.64 0.61 0.59 0.64 0.68 0.69 0.69 0.78 0.88 1.01 1.16 1.34 1.40 1.51 1.68 1.82 1.77 1.72 1.72 1.71 1.62 1.54 1.48 1.55 1.63 1.70 1.60 1.48 1.52 1.63 1.65 1.72 1.94 1.99 1.96

GEFSSGP_prec_meanprecacc_252.txt.gz
Total_Precipitation_Accumulation
0.10 0.22 0.38 0.46 0.74 1.32 1.35 1.09 0.66 0.43 0.43 0.50 0.50 0.49 0.63 0.77 1.06 1.98 1.96 1.68 1.11 0.98 1.19 1.22 1.21 1.05 0.94 0.93 0.95 0.91 0.84 0.78 0.85 0.90 0.96 1.05 1.13 1.09 1.07 1.19 1.35 1.45 1.49 1.55 1.66 1.67 1.59 1.36 1.15
0.13 0.21 0.33 0.43 0.95 1.50 1.31 0.99 0.56 0.44 0.37 0.46 0.55 0.50 0.67 0.75 0.75 1.22 1.58 1.38 0.87 0.73 0.88 0.90 0.97 0.90 0.77 0.67 0.71 0.81 0.80 0.80 0.87 0.98 1.10 1.22 1.34 1.31 1.31 1.34 1.39 1.46 1.47 1.49 1.54 1.50 1.32 1.16 1.03
0.12 0.15 0.28 0.42 0.91 1.10 0.90 0.66 0.39 0.35 0.28 0.33 0.47 0.42 0.62 0.96 0.86 1.10 1.26 1.04 0.74 0.64 0.72 0.82 0.75 0.67 0.66 0.60 0.60 0.74 0.84 0.88 0.87 0.97 1.10 1.26 1.50 1.51 1.55 1.59 1.65 1.62 1.50 1.42 1.39 1.35 1.14 1.00 0.90
0.07 0.13 0.21 0.33 0.59 0.63 0.48 0.43 0.31 0.29 0.28 0.28 0.40 0.55 0.85 0.87 0.82 0.97 0.96 0.84 0.58 0.53 0.59 0.61 0.70 0.67 0.63 0.63 0.63 0.69 0.79 0.86 0.89 0.93 1.08 1.25 1.52 1.68 1.75 1.71 1.73 1.65 1.43 1.34 1.27 1.19 0.99 0.87 0.83
0.04 0.11 0.20 0.28 0.35 0.43 0.39 0.34 0.28 0.29 0.27 0.33 0.44 0.79 1.22 1.08 0.80 0.79 0.79 0.70 0.55 0.49 0.57 0.58 0.65 0.66 0.65 0.63 0.69 0.73 0.73 0.81 0.80 0.79 0.91 1.13 1.37 1.67 1.70 1.64 1.57 1.43 1.34 1.30 1.23 1.09 0.89 0.85 0.87
0.03 0.07 0.17 0.19 0.25 0.30 0.31 0.26 0.26 0.24 0.27 0.39 0.57 0.86 1.22 1.17 1.00 0.97 0.97 0.82 0.76 0.59 0.51 0.58 0.68 0.68 0.64 0.60 0.65 0.67 0.69 0.71 0.75 0.76 0.83 1.03 1.21 1.38 1.44 1.40 1.32 1.22 1.24 1.22 1.18 1.05 0.90 0.84 0.87
0.03 0.05 0.10 0.11 0.16 0.21 0.23 0.21 0.22 0.23 0.32 0.49 0.67 1.00 1.21 1.36 1.23 1.10 1.23 1.30 1.09 0.81 0.64 0.61 0.59 0.56 0.57 0.62 0.63 0.66 0.70 0.77 0.82 0.84 0.93 1.11 1.14 1.20 1.19 1.22 1.20 1.20 1.18 1.18 1.08 0.92 0.80 0.74 0.77
0.02 0.05 0.08 0.07 0.09 0.17 0.15 0.17 0.17 0.22 0.37 0.46 0.62 1.01 1.30 1.22 1.24 1.27 1.43 1.56 1.47 1.10 0.90 0.75 0.71 0.71 0.61 0.60 0.70 0.75 0.82 0.91 0.98 1.00 1.10 1.25 1.25 1.21 1.25 1.21 1.20 1.20 1.24 1.21 1.05 0.83 0.69 0.67 0.72
0.02 0.04 0.05 0.05 0.07 0.12 0.10 0.15 0.19 0.17 0.23 0.40 0.57 0.86 0.95 0.90 1.04 1.19 1.41 1.59 1.77 1.54 1.17 0.98 0.89 0.91 0.86 0.73 0.75 0.91 0.97 1.07 1.14 1.30 1.43 1.60 1.60 1.44 1.53 1.39 1.44 1.39 1.41 1.34 1.20 1.03 0.90 0.81 0.81
0.02 0.02 0.03 0.03 0.04 0.05 0.08 0.13 0.18 0.16 0.35 0.62 0.75 0.84 0.77 0.90 1.00 1.21 1.37 1.48 1.65 1.73 1.31 1.18 1.03 0.92 0.92 1.02 1.29 1.37 1.18 1.32 1.56 1.79 1.93 2.16 2.10 1.99 1.64 1.74 1.86 1.95 2.05 1.91 1.75 1.66 1.33 1.12 1.06
0.01 0.02 0.02 0.02 0.02 0.03 0.08 0.09 0.14 0.18 0.50 0.97 1.12 1.13 1.05 1.00 1.13 1.38 1.61 1.66 1.55 1.62 1.40 1.32 1.31 1.29 1.16 1.30 1.51 1.62 1.61 1.76 1.90 1.97 2.08 2.24 1.96 1.86 1.87 1.99 2.21 2.34 2.39 2.23 2.27 2.26 1.93 1.86 1.84
0.01 0.01 0.01 0.02 0.02 0.03 0.07 0.09 0.13 0.21 0.50 0.80 1.07 1.05 1.18 1.14 1.22 1.47 1.78 1.96 1.96 2.08 1.86 1.70 1.70 1.61 1.53 1.50 1.66 1.77 1.78 1.83 1.96 2.06 1.99 2.09 2.22 2.25 2.32 2.52 2.45 2.55 2.67 2.93 2.57 2.68 2.53 2.35 2.25
0.01 0.01 0.01 0.02 0.02 0.03 0.08 0.16 0.16 0.26 0.38 0.58 0.83 0.83 0.88 1.18 1.55 1.91 2.27 2.26 2.41 2.62 2.60 2.34 2.05 1.89 1.85 1.97 1.98 1.90 1.97 2.06 2.14 2.28 2.20 2.19 2.43 2.54 2.59 2.58 2.65 2.46 2.56 2.88 2.96 2.75 2.94 2.99 2.80
0.01 0.01 0.01 0.03 0.03 0.05 0.09 0.22 0.28 0.36 0.46 0.52 0.77 1.01 1.05 1.40 1.73 2.28 2.92 2.82 2.61 2.81 2.90 2.70 2.51 2.37 2.33 2.47 2.56 2.44 2.24 2.42 2.50 2.48 2.31 2.36 2.60 2.88 3.00 2.86 2.92 2.73 2.60 2.77 2.91 2.91 3.50 3.36 3.21
0.01 0.03 0.04 0.06 0.07 0.10 0.16 0.37 0.52 0.52 0.49 0.58 0.88 1.19 1.43 1.57 1.90 2.24 2.60 2.93 3.09 3.19 3.10 3.05 3.01 2.91 2.94 2.93 2.89 2.69 2.62 2.52 2.60 2.66 2.67 2.64 2.68 2.99 3.11 3.16 3.11 2.93 2.78 2.94 2.96 3.16 3.43 3.18 3.03
0.02 0.05 0.09 0.12 0.13 0.14 0.23 0.62 0.62 0.52 0.52 0.84 1.04 1.37 1.69 1.75 2.00 2.40 2.74 3.26 3.52 3.56 3.55 3.53 3.37 3.38 3.40 3.38 3.28 3.10 2.97 2.80 2.63 2.60 2.73 2.76 2.84 3.06 3.24 3.10 2.99 3.11 3.12 3.24 3.42 3.48 3.47 3.36 3.22
0.07 0.09 0.14 0.14 0.17 0.15 0.21 0.46 0.59 0.55 0.74 1.02 1.26 1.58 1.88 2.13 2.57 3.04 3.29 3.40 3.76 4.08 4.25 4.26 4.18 3.95 3.71 3.66 3.65 3.68 3.64 3.39 3.07 2.93 2.91 2.91 2.81 2.93 3.17 3.12 3.18 3.24 3.29 3.32 3.06 3.49 3.46 3.48 3.33
0.09 0.09 0.14 0.17 0.16 0.18 0.26 0.42 0.52 0.60 0.83 1.25 1.63 1.87 2.14 2.54 3.02 3.35 3.62 3.96 4.10 4.37 4.88 4.85 4.66 4.53 4.44 4.34 4.10 4.10 3.86 3.59 3.47 3.36 3.42 3.24 3.09 3.05 3.27 3.23 3.30 3.33 3.42 3.43 3.38 3.60 3.54 3.37 3.27
0.08 0.10 0.15 0.19 0.16 0.20 0.36 0.54 0.59 0.77 1.06 1.38 1.73 1.97 2.30 2.62 2.99 3.41 3.49 3.72 4.04 4.65 5.12 5.35 5.35 5.15 4.85 4.46 4.07 3.90 3.82 3.79 3.65 3.50 3.34 3.20 3.12 3.19 3.51 3.39 3.63 3.54 3.32 3.26 3.35 3.57 3.43 3.17 3.21
0.07 0.11 0.16 0.18 0.16 0.19 0.37 0.56 0.67 1.01 1.33 1.39 1.57 1.71 1.90 2.33 2.67 2.98 3.15 3.23 3.64 4.23 4.67 4.83 4.59 4.46 4.30 4.05 3.95 3.94 4.15 3.87 3.63 3.51 3.36 3.08 3.04 3.14 3.14 3.42 3.32 3.31 3.38 3.27 3.28 3.51 3.31 2.89 3.02
0.05 0.07 0.12 0.18 0.18 0.25 0.39 0.73 0.94 1.16 1.29 1.32 1.42 1.58 1.69 1.98 2.29 2.60 2.71 2.87 3.08 3.18 3.44 3.62 3.78 3.72 3.60 3.59 3.57 3.61 3.83 3.62 3.45 3.37 3.29 2.92 2.77 2.75 2.86 2.94 3.01 3.29 3.22 3.25 3.32 3.26 3.16 2.86 2.79
0.07 0.07 0.07 0.10 0.18 0.31 0.46 1.01 1.27 1.23 1.27 1.40 1.40 1.39 1.64 1.94 1.93 2.04 2.25 2.42 2.67 2.79 2.98 3.04 3.08 3.22 3.26 3.34 3.24 3.09 2.99 2.92 2.88 2.99 2.96 2.90 2.76 2.65 2.67 2.71 2.75 2.81 2.73 2.87 2.62 2.74 2.96 3.08 2.82
0.05 0.05 0.07 0.11 0.21 0.33 0.46 0.78 1.20 1.53 1.60 1.41 1.35 1.24 1.44 1.58 1.49 1.48 1.65 1.79 2.00 2.19 2.42 2.58 2.70 2.81 2.93 3.00 2.93 2.90 2.69 2.69 2.75 2.80 2.82 2.78 2.73 2.70 2.66 2.65 2.63 2.51 2.37 2.49 2.50 2.69 2.70 2.72 2.69
0.04 0.07 0.13 0.25 0.43 0.67 0.57 0.71 1.14 1.48 1.73 1.48 1.27 1.19 1.29 1.26 1.23 1.34 1.46 1.55 1.68 1.93 2.11 2.25 2.40 2.46 2.58 2.63 2.68 2.65 2.60 2.62 2.62 2.63 2.62 2.60 2.60 2.51 2.45 2.43 2.44 2.30 2.28 2.35 2.44 2.53 2.47 2.51 2.64
0.06 0.13 0.47 0.84 1.12 1.14 0.73 0.79 1.15 1.16 1.19 1.21 1.16 1.21 1.21 1.14 1.07 1.08 1.18 1.33 1.50 1.70 1.81 1.87 2.01 2.10 2.11 2.17 2.23 2.24 2.33 2.45 2.33 2.28 2.27 2.27 2.14 2.03 2.10 2.04 2.12 2.11 2.14 2.18 2.31 2.38 2.35 2.47 2.63
0.11 0.15 0.51 0.79 0.85 0.95 0.82 1.11 1.44 1.15 1.06 1.00 1.08 1.18 1.17 1.03 0.96 0.99 1.08 1.14 1.21 1.38 1.56 1.60 1.71 1.82 1.96 2.00 1.99 2.01 2.03 2.06 1.97 2.03 2.02 1.97 1.75 1.68 1.86 2.00 2.04 2.03 2.03 2.07 2.30 2.18 2.20 2.36 2.42
0.15 0.18 0.23 0.45 0.51 0.72 0.93 1.22 1.39 1.09 1.05 1.17 1.29 1.28 1.23 0.97 0.82 0.84 0.85 0.89 0.90 1.00 1.13 1.25 1.52 1.66 1.75 1.82 1.84 1.78 1.74 1.79 1.81 1.86 1.96 1.87 1.83 1.70 1.79 1.87 1.98 2.02 2.11 2.23 2.32 2.18 2.31 2.54 2.44
0.15 0.16 0.19 0.37 0.56 0.77 0.91 1.27 1.57 1.52 1.36 1.29 1.37 1.22 0.95 0.78 0.68 0.63 0.63 0.64 0.72 0.80 0.88 1.02 1.24 1.35 1.44 1.60 1.66 1.54 1.69 1.80 1.83 1.81 1.70 1.69 1.72 1.73 1.68 1.68 1.77 1.79 1.87 2.04 2.19 2.12 2.28 2.54 2.50
0.19 0.21 0.29 0.40 0.44 0.66 1.03 1.24 1.19 1.24 1.17 1.22 1.21 1.04 0.80 0.65 0.59 0.60 0.59 0.62 0.69 0.74 0.84 1.01 1.23 1.38 1.37 1.46 1.55 1.57 1.67 1.79 1.82 1.73 1.63 1.62 1.63 1.68 1.63 1.64 1.67 1.66 1.63 1.72 1.87 1.89 2.12 2.17 2.17
0.17 0.19 0.28 0.42 0.42 0.46 0.71 0.93 0.67 0.73 0.75 0.82 0.88 0.77 0.69 0.66 0.61 0.67 0.72 0.72 0.73 0.81 0.91 1.04 1.18 1.34 1.40 1.51 1.68 1.82 1.78 1.72 1.73 1.72 1.62 1.55 1.49 1.56 1.63 1.71 1.62 1.50 1.53 1.66 1.68 1.76 1.99 2.06 2.04

GEFSSGP_prec_meanprecacc_258.txt.gz
Total_Precipitation_Accumulation
0.11 0.23 0.40 0.47 0.75 1.32 1.36 1.12 0.69 0.45 0.45 0.53 0.52 0.52 0.66 0.81 1.10 2.03 2.05 1.77 1.18 1.06 1.30 1.30 1.28 1.12 1.00 0.97 0.99 0.97 0.92 0.88 0.95 1.00 1.05 1.12 1.22 1.19 1.16 1.29 1.46 1.58 1.62 1.67 1.78 1.83 1.76 1.55 1.29
0.13 0.22 0.34 0.44 0.95 1.51 1.32 1.02 0.58 0.46 0.39 0.47 0.57 0.51 0.70 0.79 0.79 1.27 1.64 1.46 0.92 0.78 0.93 0.94 1.02 0.96 0.82 0.71 0.75 0.87 0.84 0.87 0.96 1.08 1.20 1.30 1.44 1.44 1.41 1.44 1.48 1.56 1.55 1.56 1.64 1.61 1.47 1.33 1.19
0.12 0.16 0.28 0.42 0.91 1.10 0.92 0.69 0.40 0.36 0.29 0.34 0.48 0.43 0.65 1.01 0.90 1.13 1.30 1.10 0.78 0.68 0.75 0.86 0.80 0.71 0.69 0.63 0.63 0.77 0.88 0.93 0.93 1.04 1.18 1.35 1.61 1.65 1.67 1.70 1.74 1.69 1.57 1.49 1.47 1.43 1.25 1.12 1.03
0.08 0.13 0.21 0.33 0.59 0.63 0.49 0.44 0.32 0.31 0.28 0.28 0.40 0.56 0.88 0.91 0.85 0.99 0.98 0.87 0.62 0.57 0.61 0.64 0.72 0.69 0.65 0.65 0.65 0.71 0.82 0.90 0.94 1.00 1.16 1.36 1.64 1.80 1.88 1.82 1.80 1.71 1.50 1.40 1.33 1.26 1.08 0.97 0.93
0.05 0.11 0.21 0.28 0.35 0.44 0.40 0.35 0.29 0.30 0.27 0.33 0.44 0.79 1.24 1.12 0.82 0.80 0.80 0.73 0.58 0.52 0.59 0.61 0.67 0.68 0.66 0.64 0.71 0.75 0.75 0.86 0.88 0.88 1.02 1.26 1.48 1.77 1.80 1.73 1.65 1.51 1.41 1.36 1.29 1.16 0.99 0.95 0.95
0.04 0.07 0.17 0.19 0.25 0.31 0.32 0.27 0.27 0.24 0.27 0.40 0.57 0.87 1.24 1.21 1.03 0.99 1.00 0.86 0.79 0.61 0.53 0.62 0.70 0.70 0.66 0.61 0.67 0.70 0.71 0.75 0.83 0.87 0.96 1.14 1.31 1.46 1.50 1.46 1.38 1.30 1.32 1.31 1.26 1.14 1.03 0.95 0.96
0.03 0.05 0.10 0.11 0.17 0.22 0.25 0.22 0.22 0.23 0.32 0.49 0.67 1.00 1.23 1.40 1.26 1.11 1.24 1.31 1.10 0.84 0.68 0.65 0.61 0.57 0.59 0.63 0.65 0.68 0.72 0.80 0.87 0.92 1.02 1.19 1.22 1.28 1.25 1.28 1.26 1.26 1.26 1.27 1.16 1.01 0.91 0.85 0.89
0.02 0.05 0.08 0.07 0.10 0.18 0.17 0.17 0.18 0.23 0.37 0.46 0.62 1.01 1.31 1.24 1.26 1.28 1.46 1.59 1.49 1.12 0.94 0.79 0.74 0.73 0.63 0.61 0.73 0.78 0.85 0.95 1.04 1.08 1.18 1.34 1.34 1.30 1.32 1.27 1.26 1.27 1.32 1.28 1.13 0.91 0.80 0.80 0.87
0.03 0.04 0.05 0.05 0.07 0.12 0.10 0.15 0.19 0.17 0.23 0.40 0.58 0.86 0.96 0.91 1.05 1.20 1.43 1.63 1.79 1.56 1.20 1.02 0.91 0.93 0.88 0.75 0.78 0.94 1.02 1.12 1.20 1.36 1.51 1.69 1.68 1.50 1.59 1.48 1.53 1.47 1.48 1.42 1.28 1.12 1.02 0.96 0.94
0.02 0.02 0.03 0.03 0.04 0.05 0.08 0.13 0.18 0.16 0.36 0.62 0.75 0.85 0.77 0.90 1.01 1.22 1.38 1.50 1.67 1.75 1.33 1.21 1.05 0.94 0.93 1.04 1.31 1.39 1.20 1.34 1.59 1.83 1.97 2.21 2.15 2.02 1.69 1.82 1.95 2.01 2.12 1.99 1.84 1.77 1.47 1.23 1.13
0.01 0.02 0.02 0.03 0.02 0.03 0.08 0.09 0.14 0.18 0.51 0.97 1.12 1.13 1.05 1.00 1.13 1.39 1.62 1.68 1.57 1.64 1.42 1.34 1.34 1.32 1.19 1.32 1.52 1.63 1.62 1.79 1.93 2.00 2.11 2.28 1.99 1.90 1.91 2.05 2.28 2.40 2.44 2.28 2.32 2.32 1.99 1.90 1.88
0.01 0.01 0.01 0.02 0.02 0.03 0.07 0.09 0.13 0.21 0.51 0.80 1.07 1.05 1.18 1.14 1.23 1.47 1.80 1.98 1.98 2.10 1.88 1.72 1.73 1.66 1.56 1.52 1.68 1.79 1.80 1.86 2.00 2.10 2.03 2.13 2.25 2.30 2.38 2.58 2.51 2.58 2.70 2.96 2.61 2.72 2.56 2.39 2.29
0.01 0.01 0.02 0.02 0.03 0.04 0.08 0.16 0.16 0.26 0.38 0.58 0.83 0.83 0.88 1.18 1.55 1.92 2.28 2.28 2.43 2.65 2.63 2.36 2.08 1.92 1.88 2.00 2.01 1.93 2.00 2.09 2.17 2.32 2.25 2.22 2.46 2.57 2.62 2.62 2.69 2.49 2.58 2.92 3.01 2.79 2.98 3.05 2.85
0.01 0.01 0.02 0.03 0.03 0.06 0.09 0.22 0.28 0.36 0.46 0.52 0.77 1.01 1.05 1.40 1.73 2.28 2.92 2.83 2.64 2.85 2.93 2.72 2.53 2.38 2.35 2.50 2.58 2.47 2.28 2.46 2.53 2.50 2.34 2.39 2.63 2.90 3.03 2.89 2.94 2.75 2.63 2.80 2.94 2.95 3.54 3.42 3.27
0.02 0.03 0.04 0.07 0.08 0.11 0.17 0.37 0.52 0.52 0.49 0.58 0.88 1.19 1.43 1.57 1.90 2.24 2.61 2.95 3.11 3.21 3.12 3.07 3.03 2.93 2.96 2.95 2.91 2.72 2.65 2.55 2.63 2.69 2.70 2.69 2.71 3.02 3.14 3.20 3.14 2.95 2.81 2.97 2.99 3.20 3.46 3.23 3.09
0.02 0.06 0.10 0.12 0.13 0.14 0.23 0.62 0.62 0.52 0.53 0.84 1.04 1.37 1.69 1.76 2.01 2.41 2.75 3.28 3.54 3.58 3.56 3.54 3.39 3.41 3.43 3.41 3.30 3.12 2.98 2.82 2.67 2.64 2.77 2.80 2.89 3.10 3.27 3.13 3.02 3.13 3.15 3.27 3.45 3.52 3.52 3.41 3.27
0.07 0.10 0.14 0.14 0.17 0.15 0.21 0.46 0.59 0.55 0.75 1.02 1.26 1.58 1.88 2.13 2.58 3.05 3.30 3.41 3.77 4.10 4.26 4.28 4.19 3.98 3.76 3.70 3.68 3.69 3.65 3.41 3.10 2.96 2.94 2.96 2.85 2.98 3.22 3.17 3.21 3.25 3.30 3.34 3.08 3.53 3.50 3.53 3.37
0.09 0.09 0.14 0.18 0.16 0.18 0.26 0.42 0.52 0.60 0.84 1.25 1.63 1.87 2.14 2.54 3.03 3.37 3.63 3.97 4.12 4.39 4.90 4.86 4.68 4.56 4.47 4.37 4.13 4.13 3.89 3.61 3.49 3.39 3.45 3.30 3.15 3.11 3.33 3.27 3.33 3.35 3.43 3.44 3.40 3.64 3.57 3.40 3.31
0.08 0.10 0.15 0.19 0.16 0.20 0.36 0.54 0.59 0.77 1.07 1.38 1.73 1.97 2.31 2.63 3.00 3.41 3.50 3.74 4.07 4.67 5.14 5.37 5.37 5.18 4.89 4.49 4.10 3.93 3.84 3.82 3.68 3.53 3.36 3.25 3.17 3.25 3.56 3.43 3.67 3.58 3.35 3.28 3.37 3.60 3.46 3.19 3.23
0.07 0.11 0.16 0.18 0.16 0.19 0.37 0.57 0.67 1.01 1.33 1.39 1.57 1.71 1.90 2.34 2.67 2.99 3.16 3.25 3.67 4.26 4.70 4.86 4.62 4.51 4.34 4.08 3.98 3.96 4.17 3.90 3.66 3.55 3.39 3.13 3.08 3.19 3.21 3.49 3.38 3.37 3.43 3.32 3.32 3.53 3.34 2.92 3.04
0.05 0.08 0.12 0.18 0.18 0.25 0.39 0.73 0.94 1.16 1.29 1.33 1.43 1.58 1.70 1.98 2.30 2.61 2.72 2.88 3.09 3.20 3.49 3.65 3.82 3.77 3.65 3.63 3.60 3.63 3.87 3.68 3.52 3.43 3.34 2.98 2.82 2.80 2.91 2.99 3.07 3.37 3.30 3.31 3.37 3.31 3.20 2.89 2.83
0.07 0.07 0.07 0.10 0.18 0.31 0.46 1.01 1.27 1.23 1.28 1.41 1.40 1.39 1.64 1.94 1.93 2.04 2.26 2.43 2.68 2.82 3.02 3.09 3.13 3.27 3.31 3.37 3.28 3.11 3.04 2.99 2.96 3.05 3.01 2.95 2.81 2.70 2.71 2.74 2.79 2.86 2.79 2.93 2.69 2.81 3.01 3.11 2.85
0.05 0.05 0.07 0.11 0.21 0.33 0.46 0.78 1.20 1.53 1.60 1.41 1.35 1.24 1.44 1.59 1.50 1.48 1.65 1.79 2.02 2.22 2.46 2.62 2.75 2.85 2.98 3.03 2.96 2.94 2.74 2.73 2.79 2.85 2.88 2.85 2.81 2.77 2.72 2.68 2.66 2.56 2.43 2.54 2.55 2.74 2.74 2.76 2.73
0.05 0.07 0.13 0.25 0.44 0.67 0.57 0.71 1.14 1.48 1.73 1.48 1.27 1.19 1.29 1.28 1.25 1.36 1.48 1.58 1.70 1.96 2.13 2.28 2.44 2.50 2.62 2.67 2.72 2.71 2.66 2.65 2.67 2.68 2.68 2.67 2.68 2.58 2.51 2.46 2.47 2.37 2.33 2.40 2.48 2.58 2.53 2.56 2.69
0.06 0.13 0.47 0.84 1.12 1.14 0.73 0.79 1.15 1.16 1.19 1.21 1.17 1.22 1.23 1.17 1.13 1.14 1.22 1.36 1.51 1.71 1.83 1.89 2.04 2.14 2.16 2.21 2.29 2.33 2.40 2.50 2.39 2.32 2.35 2.35 2.20 2.09 2.14 2.09 2.18 2.16 2.17 2.21 2.35 2.45 2.40 2.51 2.67
0.11 0.15 0.51 0.79 0.85 0.95 0.82 1.11 1.44 1.15 1.07 1.00 1.08 1.18 1.18 1.04 0.97 1.00 1.10 1.16 1.22 1.39 1.57 1.60 1.72 1.84 2.00 2.04 2.06 2.11 2.10 2.11 2.01 2.06 2.06 2.02 1.81 1.73 1.90 2.06 2.10 2.07 2.06 2.11 2.35 2.23 2.24 2.40 2.45
0.15 0.18 0.23 0.45 0.51 0.72 0.93 1.22 1.39 1.09 1.05 1.17 1.30 1.28 1.23 0.97 0.82 0.84 0.86 0.90 0.91 1.00 1.14 1.25 1.52 1.67 1.77 1.86 1.89 1.85 1.79 1.81 1.83 1.88 1.98 1.89 1.85 1.73 1.82 1.90 2.01 2.04 2.13 2.26 2.36 2.23 2.34 2.57 2.47
0.15 0.16 0.19 0.37 0.56 0.77 0.91 1.27 1.57 1.52 1.36 1.29 1.37 1.22 0.95 0.79 0.68 0.63 0.64 0.65 0.72 0.80 0.88 1.02 1.24 1.35 1.45 1.62 1.69 1.57 1.71 1.81 1.83 1.82 1.71 1.69 1.73 1.74 1.69 1.69 1.78 1.80 1.89 2.06 2.21 2.14 2.30 2.56 2.52
0.19 0.21 0.29 0.40 0.44 0.66 1.03 1.24 1.19 1.24 1.17 1.22 1.21 1.04 0.80 0.65 0.60 0.61 0.60 0.63 0.70 0.74 0.85 1.01 1.24 1.38 1.37 1.47 1.56 1.58 1.67 1.79 1.82 1.73 1.63 1.62 1.64 1.69 1.64 1.65 1.68 1.67 1.63 1.72 1.88 1.89 2.13 2.18 2.19
0.17 0.19 0.28 0.42 0.42 0.46 0.71 0.93 0.67 0.73 0.75 0.82 0.88 0.77 0.69 0.66 0.62 0.68 0.73 0.73 0.74 0.82 0.92 1.04 1.19 1.36 1.41 1.52 1.68 1.82 1.78 1.72 1.73 1.72 1.63 1.55 1.49 1.56 1.64 1.71 1.63 1.51 1.54 1.67 1.69 1.77 2.01 2.09 2.08